Time,TemperatureF,DewpointF,PressureIn,WindDirection,WindDirectionDegrees,WindSpeedMPH,WindSpeedGustMPH,Humidity,HourlyPrecipIn,Conditions,Clouds,dailyrainin,SoftwareType,DateUTC
2013-02-24 00:02:00,41.9,18.7,29.39,SSW,203,3.1,4.7,39,0.00,,,0.00,WUHU216HW,2013-02-24 07:02:00,
2013-02-24 00:03:00,41.8,18.6,29.39,SSW,203,5.4,5.4,39,0.00,,,0.00,WUHU216HW,2013-02-24 07:03:00,
2013-02-24 00:04:00,41.8,18.6,29.39,SSW,203,4.0,5.4,39,0.00,,,0.00,WUHU216HW,2013-02-24 07:04:00,
2013-02-24 00:08:00,41.8,18.6,29.39,SSW,203,3.8,5.4,39,0.00,,,0.00,WUHU216HW,2013-02-24 07:08:00,
2013-02-24 00:09:00,41.8,18.6,29.39,SSW,203,3.4,5.4,39,0.00,,,0.00,WUHU216HW,2013-02-24 07:09:00,
2013-02-24 00:13:00,41.8,18.6,29.39,South,180,4.0,4.7,39,0.00,,,0.00,WUHU216HW,2013-02-24 07:13:00,
2013-02-24 00:14:00,41.8,18.6,29.39,SSW,203,2.9,4.7,39,0.00,,,0.00,WUHU216HW,2013-02-24 07:14:00,
2013-02-24 00:18:00,41.8,18.6,29.40,SSW,203,3.1,4.7,39,0.00,,,0.00,WUHU216HW,2013-02-24 07:18:00,
2013-02-24 00:19:00,41.6,18.4,29.39,South,180,3.1,4.7,39,0.00,,,0.00,WUHU216HW,2013-02-24 07:19:00,
2013-02-24 00:23:00,41.6,18.4,29.39,South,180,1.8,4.0,39,0.00,,,0.00,WUHU216HW,2013-02-24 07:23:00,
2013-02-24 00:24:00,41.6,18.4,29.39,South,180,1.8,4.0,39,0.00,,,0.00,WUHU216HW,2013-02-24 07:24:00,
2013-02-24 00:25:00,41.6,18.4,29.40,SW,225,2.2,4.0,39,0.00,,,0.00,WUHU216HW,2013-02-24 07:25:00,
2013-02-24 00:28:00,41.4,18.2,29.40,WSW,248,1.6,3.1,39,0.00,,,0.00,WUHU216HW,2013-02-24 07:28:00,
2013-02-24 00:29:00,41.4,18.2,29.40,WSW,248,1.6,3.1,39,0.00,,,0.00,WUHU216HW,2013-02-24 07:29:00,
2013-02-24 00:30:00,41.4,18.2,29.40,WSW,248,1.1,2.7,39,0.00,,,0.00,WUHU216HW,2013-02-24 07:30:00,
2013-02-24 00:33:00,41.4,18.2,29.40,West,270,0.7,2.2,39,0.00,,,0.00,WUHU216HW,2013-02-24 07:33:00,
2013-02-24 00:34:00,41.4,18.2,29.40,West,270,0.7,2.2,39,0.00,,,0.00,WUHU216HW,2013-02-24 07:34:00,
2013-02-24 00:35:00,41.4,18.9,29.40,WSW,248,1.3,2.2,40,0.00,,,0.00,WUHU216HW,2013-02-24 07:35:00,
2013-02-24 00:38:00,41.4,18.9,29.40,WSW,248,7.2,7.2,40,0.00,,,0.00,WUHU216HW,2013-02-24 07:38:00,
2013-02-24 00:39:00,41.4,19.4,29.40,WNW,293,4.0,7.2,41,0.00,,,0.00,WUHU216HW,2013-02-24 07:39:00,
2013-02-24 00:40:00,41.4,19.4,29.40,WNW,293,4.0,7.2,41,0.00,,,0.00,WUHU216HW,2013-02-24 07:40:00,
2013-02-24 00:43:00,41.4,19.4,29.40,West,270,6.3,7.2,41,0.00,,,0.00,WUHU216HW,2013-02-24 07:43:00,
2013-02-24 00:44:00,41.4,19.9,29.39,SW,225,6.9,7.2,42,0.00,,,0.00,WUHU216HW,2013-02-24 07:44:00,
2013-02-24 00:45:00,41.4,19.9,29.39,SW,225,6.9,7.2,42,0.00,,,0.00,WUHU216HW,2013-02-24 07:45:00,
2013-02-24 00:48:00,41.4,20.4,29.40,SW,225,7.8,7.8,43,0.00,,,0.00,WUHU216HW,2013-02-24 07:48:00,
2013-02-24 00:50:00,41.4,20.4,29.40,WSW,248,8.1,8.1,43,0.00,,,0.00,WUHU216HW,2013-02-24 07:50:00,
2013-02-24 00:54:00,41.6,20.6,29.40,WNW,293,6.3,9.2,43,0.00,,,0.00,WUHU216HW,2013-02-24 07:54:00,
2013-02-24 00:55:00,41.6,20.6,29.40,SW,225,7.6,9.2,43,0.00,,,0.00,WUHU216HW,2013-02-24 07:55:00,
2013-02-24 00:59:00,41.6,20.6,29.40,SW,225,7.4,9.2,43,0.00,,,0.00,WUHU216HW,2013-02-24 07:59:00,
2013-02-24 01:00:00,41.6,20.6,29.40,West,270,5.4,9.2,43,0.00,,,0.00,WUHU216HW,2013-02-24 08:00:00,
2013-02-24 01:01:00,41.6,20.6,29.40,West,270,5.4,8.7,43,0.00,,,0.00,WUHU216HW,2013-02-24 08:01:00,
2013-02-24 01:04:00,41.6,20.6,29.39,WSW,248,5.4,8.5,43,0.00,,,0.00,WUHU216HW,2013-02-24 08:04:00,
2013-02-24 01:05:00,41.6,20.1,29.39,WSW,248,4.7,8.5,42,0.00,,,0.00,WUHU216HW,2013-02-24 08:05:00,
2013-02-24 01:06:00,41.6,20.1,29.40,West,270,6.7,8.5,42,0.00,,,0.00,WUHU216HW,2013-02-24 08:06:00,
2013-02-24 01:09:00,41.6,20.1,29.40,WSW,248,6.9,7.2,42,0.00,,,0.00,WUHU216HW,2013-02-24 08:09:00,
2013-02-24 01:10:00,41.4,19.9,29.40,WSW,248,4.0,7.2,42,0.00,,,0.00,WUHU216HW,2013-02-24 08:10:00,
2013-02-24 01:11:00,41.4,19.9,29.40,WSW,248,4.0,6.9,42,0.00,,,0.00,WUHU216HW,2013-02-24 08:11:00,
2013-02-24 01:14:00,41.4,20.4,29.40,West,270,4.0,6.9,43,0.00,,,0.00,WUHU216HW,2013-02-24 08:14:00,
2013-02-24 01:15:00,41.4,19.9,29.40,WSW,248,5.1,6.9,42,0.00,,,0.00,WUHU216HW,2013-02-24 08:15:00,
2013-02-24 01:16:00,41.4,19.9,29.40,West,270,4.7,6.9,42,0.00,,,0.00,WUHU216HW,2013-02-24 08:16:00,
2013-02-24 01:19:00,41.4,19.9,29.40,WSW,248,5.6,5.8,42,0.00,,,0.00,WUHU216HW,2013-02-24 08:19:00,
2013-02-24 01:20:00,41.2,20.3,29.40,West,270,3.6,5.8,43,0.00,,,0.00,WUHU216HW,2013-02-24 08:20:00,
2013-02-24 01:21:00,41.2,20.3,29.40,West,270,4.0,5.8,43,0.00,,,0.00,WUHU216HW,2013-02-24 08:21:00,
2013-02-24 01:24:00,41.2,20.3,29.41,SSW,203,3.6,5.6,43,0.00,,,0.00,WUHU216HW,2013-02-24 08:24:00,
2013-02-24 01:25:00,41.0,20.1,29.41,NNW,338,5.4,5.6,43,0.00,,,0.00,WUHU216HW,2013-02-24 08:25:00,
2013-02-24 01:26:00,41.0,20.1,29.41,NNW,338,3.4,5.6,43,0.00,,,0.00,WUHU216HW,2013-02-24 08:26:00,
2013-02-24 01:27:00,41.0,20.1,29.41,NNW,338,3.4,5.6,43,0.00,,,0.00,WUHU216HW,2013-02-24 08:27:00,
2013-02-24 01:29:00,40.7,19.8,29.41,North,0,2.7,5.8,43,0.00,,,0.00,WUHU216HW,2013-02-24 08:29:00,
2013-02-24 01:30:00,40.7,20.4,29.41,NW,315,4.3,5.8,44,0.00,,,0.00,WUHU216HW,2013-02-24 08:30:00,
2013-02-24 01:31:00,40.7,20.4,29.41,NNW,338,5.1,5.8,44,0.00,,,0.00,WUHU216HW,2013-02-24 08:31:00,
2013-02-24 01:32:00,40.7,20.4,29.41,NNW,338,5.1,5.8,44,0.00,,,0.00,WUHU216HW,2013-02-24 08:32:00,
2013-02-24 01:34:00,40.3,21.1,29.42,West,270,3.6,5.8,46,0.00,,,0.00,WUHU216HW,2013-02-24 08:34:00,
2013-02-24 01:35:00,40.3,21.1,29.42,NW,315,5.6,5.8,46,0.00,,,0.00,WUHU216HW,2013-02-24 08:35:00,
2013-02-24 01:36:00,40.3,21.5,29.42,NNW,338,6.9,6.9,47,0.00,,,0.00,WUHU216HW,2013-02-24 08:36:00,
2013-02-24 01:37:00,40.3,21.5,29.42,NNW,338,6.9,6.9,47,0.00,,,0.00,WUHU216HW,2013-02-24 08:37:00,
2013-02-24 01:40:00,40.0,21.3,29.42,North,0,5.1,6.9,47,0.00,,,0.00,WUHU216HW,2013-02-24 08:40:00,
2013-02-24 01:41:00,40.0,21.8,29.42,WNW,293,5.6,6.9,48,0.00,,,0.00,WUHU216HW,2013-02-24 08:41:00,
2013-02-24 01:42:00,40.0,21.8,29.42,North,0,4.5,6.9,48,0.00,,,0.00,WUHU216HW,2013-02-24 08:42:00,
2013-02-24 01:45:00,39.8,22.2,29.42,North,0,6.3,8.7,49,0.00,,,0.00,WUHU216HW,2013-02-24 08:45:00,
2013-02-24 01:46:00,39.6,22.0,29.42,NNW,338,5.6,8.7,49,0.00,,,0.00,WUHU216HW,2013-02-24 08:46:00,
2013-02-24 01:47:00,39.6,22.0,29.43,North,0,5.6,8.7,49,0.00,,,0.00,WUHU216HW,2013-02-24 08:47:00,
2013-02-24 01:50:00,39.4,22.3,29.43,NW,315,8.1,8.7,50,0.00,,,0.00,WUHU216HW,2013-02-24 08:50:00,
2013-02-24 01:51:00,39.4,22.3,29.42,NNW,338,4.7,8.7,50,0.00,,,0.00,WUHU216HW,2013-02-24 08:51:00,
2013-02-24 01:52:00,39.4,22.3,29.42,NNW,338,4.7,8.7,50,0.00,,,0.00,WUHU216HW,2013-02-24 08:52:00,
2013-02-24 01:55:00,39.2,22.1,29.43,West,270,6.3,8.1,50,0.00,,,0.00,WUHU216HW,2013-02-24 08:55:00,
2013-02-24 01:56:00,39.2,22.1,29.43,North,0,4.7,8.1,50,0.00,,,0.00,WUHU216HW,2013-02-24 08:56:00,
2013-02-24 01:57:00,39.2,22.1,29.43,NW,315,4.3,8.1,50,0.00,,,0.00,WUHU216HW,2013-02-24 08:57:00,
2013-02-24 02:00:00,39.1,22.9,29.43,NNW,338,4.9,8.7,52,0.00,,,0.00,WUHU216HW,2013-02-24 09:00:00,
2013-02-24 02:01:00,39.1,22.9,29.43,NNW,338,6.9,8.7,52,0.00,,,0.00,WUHU216HW,2013-02-24 09:01:00,
2013-02-24 02:02:00,38.9,22.7,29.43,North,0,4.7,8.7,52,0.00,,,0.00,WUHU216HW,2013-02-24 09:02:00,
2013-02-24 02:05:00,38.7,23.0,29.43,NNW,338,4.9,8.7,53,0.00,,,0.00,WUHU216HW,2013-02-24 09:05:00,
2013-02-24 02:06:00,38.7,23.0,29.43,NW,315,4.9,8.7,53,0.00,,,0.00,WUHU216HW,2013-02-24 09:06:00,
2013-02-24 02:07:00,38.5,23.2,29.43,NNW,338,9.2,9.2,54,0.00,,,0.00,WUHU216HW,2013-02-24 09:07:00,
2013-02-24 02:10:00,38.5,23.7,29.43,NW,315,4.5,9.2,55,0.00,,,0.00,WUHU216HW,2013-02-24 09:10:00,
2013-02-24 02:12:00,38.3,23.5,29.43,North,0,3.8,9.2,55,0.00,,,0.00,WUHU216HW,2013-02-24 09:12:00,
2013-02-24 02:13:00,38.3,23.5,29.43,North,0,3.8,9.2,55,0.00,,,0.00,WUHU216HW,2013-02-24 09:13:00,
2013-02-24 02:15:00,38.2,23.3,29.43,NNW,338,1.6,9.2,55,0.00,,,0.00,WUHU216HW,2013-02-24 09:15:00,
2013-02-24 02:17:00,38.0,23.1,29.42,West,270,4.3,7.4,55,0.00,,,0.00,WUHU216HW,2013-02-24 09:17:00,
2013-02-24 02:18:00,38.0,23.1,29.42,West,270,4.3,7.4,55,0.00,,,0.00,WUHU216HW,2013-02-24 09:18:00,
2013-02-24 02:20:00,37.8,23.4,29.42,North,0,2.0,7.4,56,0.00,,,0.00,WUHU216HW,2013-02-24 09:20:00,
2013-02-24 02:22:00,37.8,23.1,29.43,NW,315,7.4,7.4,55,0.00,,,0.00,WUHU216HW,2013-02-24 09:22:00,
2013-02-24 02:23:00,37.8,23.1,29.43,NW,315,7.4,7.4,55,0.00,,,0.00,WUHU216HW,2013-02-24 09:23:00,
2013-02-24 02:25:00,37.6,22.9,29.42,NNE,23,5.8,7.6,55,0.00,,,0.00,WUHU216HW,2013-02-24 09:25:00,
2013-02-24 02:27:00,37.4,22.7,29.42,NNE,23,8.9,8.9,55,0.00,,,0.00,WUHU216HW,2013-02-24 09:27:00,
2013-02-24 02:28:00,37.4,22.7,29.42,NNE,23,8.9,8.9,55,0.00,,,0.00,WUHU216HW,2013-02-24 09:28:00,
2013-02-24 02:30:00,37.4,22.7,29.42,North,0,4.9,8.9,55,0.00,,,0.00,WUHU216HW,2013-02-24 09:30:00,
2013-02-24 02:32:00,37.3,22.5,29.42,NNW,338,8.7,8.9,55,0.00,,,0.00,WUHU216HW,2013-02-24 09:32:00,
2013-02-24 02:33:00,37.3,22.5,29.42,NNW,338,8.7,8.9,55,0.00,,,0.00,WUHU216HW,2013-02-24 09:33:00,
2013-02-24 02:35:00,37.1,22.3,29.42,NNW,338,4.9,8.9,55,0.00,,,0.00,WUHU216HW,2013-02-24 09:35:00,
2013-02-24 02:38:00,37.1,22.3,29.42,NNW,338,6.3,8.7,55,0.00,,,0.00,WUHU216HW,2013-02-24 09:38:00,
2013-02-24 02:41:00,37.1,22.3,29.42,North,0,5.4,8.7,55,0.00,,,0.00,WUHU216HW,2013-02-24 09:41:00,
2013-02-24 02:43:00,36.9,22.2,29.42,North,0,4.9,6.7,55,0.00,,,0.00,WUHU216HW,2013-02-24 09:43:00,
2013-02-24 02:44:00,36.9,22.2,29.41,North,0,4.0,6.7,55,0.00,,,0.00,WUHU216HW,2013-02-24 09:44:00,
2013-02-24 02:46:00,36.7,22.1,29.41,North,0,6.0,8.7,55,0.00,,,0.00,WUHU216HW,2013-02-24 09:46:00,
2013-02-24 02:48:00,36.7,22.1,29.41,North,0,5.6,8.9,55,0.00,,,0.00,WUHU216HW,2013-02-24 09:48:00,
2013-02-24 02:49:00,36.7,22.1,29.41,NW,315,9.2,9.2,55,0.00,,,0.00,WUHU216HW,2013-02-24 09:49:00,
2013-02-24 02:51:00,36.5,21.9,29.41,NW,315,9.8,9.8,55,0.00,,,0.00,WUHU216HW,2013-02-24 09:51:00,
2013-02-24 02:53:00,36.4,21.7,29.41,NNE,23,8.1,9.8,55,0.00,,,0.00,WUHU216HW,2013-02-24 09:53:00,
2013-02-24 02:54:00,36.4,21.7,29.41,WNW,293,10.1,10.1,55,0.00,,,0.00,WUHU216HW,2013-02-24 09:54:00,
2013-02-24 02:56:00,36.4,21.7,29.41,NNW,338,4.7,10.1,55,0.00,,,0.00,WUHU216HW,2013-02-24 09:56:00,
2013-02-24 02:58:00,36.4,21.7,29.41,North,0,5.6,10.1,55,0.00,,,0.00,WUHU216HW,2013-02-24 09:58:00,
2013-02-24 02:59:00,36.4,21.7,29.41,NNW,338,4.7,10.1,55,0.00,,,0.00,WUHU216HW,2013-02-24 09:59:00,
2013-02-24 03:01:00,36.2,21.5,29.41,NW,315,9.2,10.1,55,0.00,,,0.00,WUHU216HW,2013-02-24 10:01:00,
2013-02-24 03:03:00,36.2,21.5,29.41,NW,315,2.0,9.2,55,0.00,,,0.00,WUHU216HW,2013-02-24 10:03:00,
2013-02-24 03:04:00,36.2,21.5,29.41,North,0,4.9,9.2,55,0.00,,,0.00,WUHU216HW,2013-02-24 10:04:00,
2013-02-24 03:05:00,36.2,21.5,29.41,NNW,338,5.8,9.2,55,0.00,,,0.00,WUHU216HW,2013-02-24 10:05:00,
2013-02-24 03:07:00,36.2,21.5,29.41,NE,45,2.9,9.2,55,0.00,,,0.00,WUHU216HW,2013-02-24 10:07:00,
2013-02-24 03:09:00,36.2,21.5,29.41,WNW,293,4.0,9.2,55,0.00,,,0.00,WUHU216HW,2013-02-24 10:09:00,
2013-02-24 03:10:00,36.2,21.2,29.41,SW,225,8.3,9.2,54,0.00,,,0.00,WUHU216HW,2013-02-24 10:10:00,
2013-02-24 03:12:00,36.0,21.0,29.41,NNW,338,6.5,9.4,54,0.00,,,0.00,WUHU216HW,2013-02-24 10:12:00,
2013-02-24 03:14:00,36.0,21.4,29.41,NNW,338,7.2,9.4,55,0.00,,,0.00,WUHU216HW,2013-02-24 10:14:00,
2013-02-24 03:15:00,36.0,21.0,29.41,NNW,338,3.6,9.4,54,0.00,,,0.00,WUHU216HW,2013-02-24 10:15:00,
2013-02-24 03:17:00,36.0,21.4,29.41,NNW,338,3.4,9.4,55,0.00,,,0.00,WUHU216HW,2013-02-24 10:17:00,
2013-02-24 03:19:00,36.0,21.4,29.41,NNW,338,3.1,9.4,55,0.00,,,0.00,WUHU216HW,2013-02-24 10:19:00,
2013-02-24 03:20:00,36.0,21.4,29.41,West,270,2.5,9.4,55,0.00,,,0.00,WUHU216HW,2013-02-24 10:20:00,
2013-02-24 03:22:00,36.0,21.4,29.41,NNW,338,4.7,7.2,55,0.00,,,0.00,WUHU216HW,2013-02-24 10:22:00,
2013-02-24 03:24:00,36.0,21.0,29.41,NW,315,3.8,4.9,54,0.00,,,0.00,WUHU216HW,2013-02-24 10:24:00,
2013-02-24 03:25:00,36.0,21.0,29.41,NW,315,3.8,4.9,54,0.00,,,0.00,WUHU216HW,2013-02-24 10:25:00,
2013-02-24 03:27:00,35.8,20.8,29.41,NNW,338,5.8,5.8,54,0.00,,,0.00,WUHU216HW,2013-02-24 10:27:00,
2013-02-24 03:29:00,35.8,21.3,29.41,North,0,2.7,5.8,55,0.00,,,0.00,WUHU216HW,2013-02-24 10:29:00,
2013-02-24 03:30:00,35.8,21.3,29.41,North,0,2.7,5.8,55,0.00,,,0.00,WUHU216HW,2013-02-24 10:30:00,
2013-02-24 03:32:00,35.6,20.6,29.41,NNW,338,2.7,5.8,54,0.00,,,0.00,WUHU216HW,2013-02-24 10:32:00,
2013-02-24 03:34:00,35.6,21.1,29.41,WNW,293,4.0,6.3,55,0.00,,,0.00,WUHU216HW,2013-02-24 10:34:00,
2013-02-24 03:35:00,35.6,21.1,29.41,WNW,293,4.0,6.3,55,0.00,,,0.00,WUHU216HW,2013-02-24 10:35:00,
2013-02-24 03:38:00,35.6,20.6,29.41,NNW,338,4.7,6.3,54,0.00,,,0.00,WUHU216HW,2013-02-24 10:38:00,
2013-02-24 03:39:00,35.6,21.1,29.40,North,0,5.8,6.3,55,0.00,,,0.00,WUHU216HW,2013-02-24 10:39:00,
2013-02-24 03:40:00,35.6,21.1,29.40,NNW,338,5.8,6.3,55,0.00,,,0.00,WUHU216HW,2013-02-24 10:40:00,
2013-02-24 03:43:00,35.5,20.9,29.40,NNW,338,3.4,6.3,55,0.00,,,0.00,WUHU216HW,2013-02-24 10:43:00,
2013-02-24 03:44:00,35.3,20.7,29.40,NW,315,2.0,5.8,55,0.00,,,0.00,WUHU216HW,2013-02-24 10:44:00,
2013-02-24 03:45:00,35.3,20.7,29.40,NW,315,2.0,5.8,55,0.00,,,0.00,WUHU216HW,2013-02-24 10:45:00,
2013-02-24 03:48:00,35.3,20.7,29.39,NNW,338,4.5,6.5,55,0.00,,,0.00,WUHU216HW,2013-02-24 10:48:00,
2013-02-24 03:49:00,35.1,21.0,29.39,NNW,338,4.3,6.5,56,0.00,,,0.00,WUHU216HW,2013-02-24 10:49:00,
2013-02-24 03:50:00,35.1,21.0,29.39,NNW,338,4.3,6.5,56,0.00,,,0.00,WUHU216HW,2013-02-24 10:50:00,
2013-02-24 03:53:00,34.9,20.8,29.39,NNW,338,5.1,8.1,56,0.00,,,0.00,WUHU216HW,2013-02-24 10:53:00,
2013-02-24 03:55:00,34.9,20.8,29.39,NW,315,3.4,8.1,56,0.00,,,0.00,WUHU216HW,2013-02-24 10:55:00,
2013-02-24 03:58:00,34.9,20.8,29.39,NW,315,5.6,8.1,56,0.00,,,0.00,WUHU216HW,2013-02-24 10:58:00,
2013-02-24 04:00:00,34.9,20.8,29.39,NW,315,8.1,8.1,56,0.00,,,0.00,WUHU216HW,2013-02-24 11:00:00,
2013-02-24 04:03:00,34.7,21.1,29.39,NNW,338,6.9,8.1,57,0.00,,,0.00,WUHU216HW,2013-02-24 11:03:00,
2013-02-24 04:05:00,34.6,21.2,29.39,NW,315,5.6,8.1,58,0.00,,,0.00,WUHU216HW,2013-02-24 11:05:00,
2013-02-24 04:08:00,34.4,21.1,29.39,NW,315,6.9,8.1,58,0.00,,,0.00,WUHU216HW,2013-02-24 11:08:00,
2013-02-24 04:10:00,34.4,21.1,29.39,NNW,338,5.6,7.8,58,0.00,,,0.00,WUHU216HW,2013-02-24 11:10:00,
2013-02-24 04:13:00,34.2,20.9,29.40,WNW,293,4.0,7.8,58,0.00,,,0.00,WUHU216HW,2013-02-24 11:13:00,
2013-02-24 04:15:00,34.2,20.5,29.40,NNW,338,3.6,6.9,57,0.00,,,0.00,WUHU216HW,2013-02-24 11:15:00,
2013-02-24 04:19:00,34.2,20.5,29.40,NNW,338,2.5,5.6,57,0.00,,,0.00,WUHU216HW,2013-02-24 11:19:00,
2013-02-24 04:20:00,34.2,20.5,29.39,NNW,338,5.1,5.4,57,0.00,,,0.00,WUHU216HW,2013-02-24 11:20:00,
2013-02-24 04:21:00,34.2,20.5,29.39,NNW,338,5.1,5.4,57,0.00,,,0.00,WUHU216HW,2013-02-24 11:21:00,
2013-02-24 04:24:00,34.0,19.9,29.40,NNE,23,0.9,6.7,56,0.00,,,0.00,WUHU216HW,2013-02-24 11:24:00,
2013-02-24 04:25:00,33.8,19.7,29.40,NNE,23,6.3,6.7,56,0.00,,,0.00,WUHU216HW,2013-02-24 11:25:00,
2013-02-24 04:26:00,33.8,19.7,29.40,NNE,23,6.3,6.7,56,0.00,,,0.00,WUHU216HW,2013-02-24 11:26:00,
2013-02-24 04:29:00,33.7,19.5,29.40,WSW,248,3.1,6.7,56,0.00,,,0.00,WUHU216HW,2013-02-24 11:29:00,
2013-02-24 04:30:00,33.7,19.5,29.40,WNW,293,3.4,6.7,56,0.00,,,0.00,WUHU216HW,2013-02-24 11:30:00,
2013-02-24 04:31:00,33.7,19.5,29.40,WNW,293,3.4,6.7,56,0.00,,,0.00,WUHU216HW,2013-02-24 11:31:00,
2013-02-24 04:34:00,33.5,19.4,29.41,NW,315,3.4,6.3,56,0.00,,,0.00,WUHU216HW,2013-02-24 11:34:00,
2013-02-24 04:35:00,33.5,19.4,29.41,NW,315,5.4,5.4,56,0.00,,,0.00,WUHU216HW,2013-02-24 11:35:00,
2013-02-24 04:36:00,33.5,19.4,29.41,NW,315,5.4,5.4,56,0.00,,,0.00,WUHU216HW,2013-02-24 11:36:00,
2013-02-24 04:39:00,33.3,19.2,29.41,NNW,338,2.9,5.4,56,0.00,,,0.00,WUHU216HW,2013-02-24 11:39:00,
2013-02-24 04:40:00,33.3,19.2,29.41,ENE,68,2.5,5.4,56,0.00,,,0.00,WUHU216HW,2013-02-24 11:40:00,
2013-02-24 04:41:00,33.3,19.2,29.41,ENE,68,2.5,5.4,56,0.00,,,0.00,WUHU216HW,2013-02-24 11:41:00,
2013-02-24 04:45:00,33.3,19.2,29.41,NNW,338,5.1,6.9,56,0.00,,,0.00,WUHU216HW,2013-02-24 11:45:00,
2013-02-24 04:46:00,33.3,19.2,29.41,NNE,23,4.5,6.9,56,0.00,,,0.00,WUHU216HW,2013-02-24 11:46:00,
2013-02-24 04:50:00,33.3,19.2,29.41,NNW,338,1.8,6.9,56,0.00,,,0.00,WUHU216HW,2013-02-24 11:50:00,
2013-02-24 04:51:00,33.3,19.2,29.42,North,0,4.7,6.9,56,0.00,,,0.00,WUHU216HW,2013-02-24 11:51:00,
2013-02-24 04:55:00,33.5,19.4,29.42,NNE,23,0.2,4.9,56,0.00,,,0.00,WUHU216HW,2013-02-24 11:55:00,
2013-02-24 04:56:00,33.5,19.4,29.42,West,270,1.6,4.9,56,0.00,,,0.00,WUHU216HW,2013-02-24 11:56:00,
2013-02-24 04:57:00,33.5,18.9,29.42,NNW,338,0.2,4.7,55,0.00,,,0.00,WUHU216HW,2013-02-24 11:57:00,
2013-02-24 05:00:00,33.5,18.9,29.42,North,0,3.6,5.1,55,0.00,,,0.00,WUHU216HW,2013-02-24 12:00:00,
2013-02-24 05:01:00,33.5,18.9,29.42,North,0,3.8,5.1,55,0.00,,,0.00,WUHU216HW,2013-02-24 12:01:00,
2013-02-24 05:02:00,33.5,18.9,29.42,North,0,3.8,5.1,55,0.00,,,0.00,WUHU216HW,2013-02-24 12:02:00,
2013-02-24 05:05:00,33.5,18.9,29.42,North,0,4.9,5.1,55,0.00,,,0.00,WUHU216HW,2013-02-24 12:05:00,
2013-02-24 05:06:00,33.5,18.9,29.42,North,0,2.5,5.1,55,0.00,,,0.00,WUHU216HW,2013-02-24 12:06:00,
2013-02-24 05:07:00,33.5,18.9,29.42,NNE,23,4.0,5.1,55,0.00,,,0.00,WUHU216HW,2013-02-24 12:07:00,
2013-02-24 05:10:00,33.5,18.9,29.42,ESE,113,0.4,4.9,55,0.00,,,0.00,WUHU216HW,2013-02-24 12:10:00,
2013-02-24 05:11:00,33.5,18.9,29.42,NNW,338,0.9,4.9,55,0.00,,,0.00,WUHU216HW,2013-02-24 12:11:00,
2013-02-24 05:12:00,33.7,19.1,29.42,North,0,2.9,4.9,55,0.00,,,0.00,WUHU216HW,2013-02-24 12:12:00,
2013-02-24 05:16:00,33.5,18.9,29.42,North,0,5.8,5.8,55,0.00,,,0.00,WUHU216HW,2013-02-24 12:16:00,
2013-02-24 05:17:00,33.5,18.9,29.42,NE,45,4.3,5.8,55,0.00,,,0.00,WUHU216HW,2013-02-24 12:17:00,
2013-02-24 05:21:00,33.7,19.1,29.41,NW,315,3.1,5.8,55,0.00,,,0.00,WUHU216HW,2013-02-24 12:21:00,
2013-02-24 05:22:00,33.5,18.9,29.41,NNE,23,0.4,5.8,55,0.00,,,0.00,WUHU216HW,2013-02-24 12:22:00,
2013-02-24 05:26:00,33.7,18.6,29.41,ENE,68,4.7,4.7,54,0.00,,,0.00,WUHU216HW,2013-02-24 12:26:00,
2013-02-24 05:27:00,33.7,18.6,29.41,ENE,68,4.7,4.7,54,0.00,,,0.00,WUHU216HW,2013-02-24 12:27:00,
2013-02-24 05:31:00,33.7,18.6,29.40,ENE,68,0.9,4.7,54,0.00,,,0.00,WUHU216HW,2013-02-24 12:31:00,
2013-02-24 05:32:00,33.7,18.6,29.40,ENE,68,0.9,4.7,54,0.00,,,0.00,WUHU216HW,2013-02-24 12:32:00,
2013-02-24 05:36:00,33.7,18.6,29.40,ENE,68,4.7,4.7,54,0.00,,,0.00,WUHU216HW,2013-02-24 12:36:00,
2013-02-24 05:37:00,33.7,18.6,29.40,ENE,68,2.7,4.7,54,0.00,,,0.00,WUHU216HW,2013-02-24 12:37:00,
2013-02-24 05:38:00,33.7,18.6,29.40,ENE,68,2.7,4.7,54,0.00,,,0.00,WUHU216HW,2013-02-24 12:38:00,
2013-02-24 05:42:00,33.5,18.9,29.40,NE,45,1.8,4.7,55,0.00,,,0.00,WUHU216HW,2013-02-24 12:42:00,
2013-02-24 05:43:00,33.5,18.9,29.40,ENE,68,2.5,4.7,55,0.00,,,0.00,WUHU216HW,2013-02-24 12:43:00,
2013-02-24 05:47:00,33.5,18.6,29.40,North,0,0.4,4.3,54,0.00,,,0.00,WUHU216HW,2013-02-24 12:47:00,
2013-02-24 05:48:00,33.5,18.6,29.40,North,0,0.4,4.3,54,0.00,,,0.00,WUHU216HW,2013-02-24 12:48:00,
2013-02-24 05:52:00,33.5,18.6,29.40,NNE,23,3.1,3.4,54,0.00,,,0.00,WUHU216HW,2013-02-24 12:52:00,
2013-02-24 05:53:00,33.5,18.6,29.40,NNE,23,3.1,3.4,54,0.00,,,0.00,WUHU216HW,2013-02-24 12:53:00,
2013-02-24 05:57:00,33.5,18.6,29.40,NE,45,2.5,5.4,54,0.00,,,0.00,WUHU216HW,2013-02-24 12:57:00,
2013-02-24 05:58:00,33.5,18.6,29.40,NE,45,2.5,5.4,54,0.00,,,0.00,WUHU216HW,2013-02-24 12:58:00,
2013-02-24 06:02:00,33.5,18.1,29.41,NNE,23,0.0,5.4,53,0.00,,,0.00,WUHU216HW,2013-02-24 13:02:00,
2013-02-24 06:03:00,33.5,18.1,29.41,NNE,23,0.0,5.4,53,0.00,,,0.00,WUHU216HW,2013-02-24 13:03:00,
2013-02-24 06:07:00,33.5,18.1,29.41,South,180,0.0,1.1,53,0.00,,,0.00,WUHU216HW,2013-02-24 13:07:00,
2013-02-24 06:08:00,33.7,18.3,29.41,South,180,0.0,1.1,53,0.00,,,0.00,WUHU216HW,2013-02-24 13:08:00,
2013-02-24 06:09:00,33.7,18.3,29.41,WSW,248,0.9,0.9,53,0.00,,,0.00,WUHU216HW,2013-02-24 13:09:00,
2013-02-24 06:12:00,33.8,18.4,29.41,WSW,248,0.7,0.9,53,0.00,,,0.00,WUHU216HW,2013-02-24 13:12:00,
2013-02-24 06:13:00,33.8,18.4,29.41,WSW,248,1.8,1.8,53,0.00,,,0.00,WUHU216HW,2013-02-24 13:13:00,
2013-02-24 06:14:00,33.8,18.4,29.41,WSW,248,1.6,1.8,53,0.00,,,0.00,WUHU216HW,2013-02-24 13:14:00,
2013-02-24 06:17:00,34.0,18.5,29.41,WSW,248,0.4,1.8,53,0.00,,,0.00,WUHU216HW,2013-02-24 13:17:00,
2013-02-24 06:18:00,34.0,18.5,29.41,WSW,248,0.0,1.8,53,0.00,,,0.00,WUHU216HW,2013-02-24 13:18:00,
2013-02-24 06:19:00,34.0,18.5,29.41,WSW,248,0.0,1.8,53,0.00,,,0.00,WUHU216HW,2013-02-24 13:19:00,
2013-02-24 06:23:00,34.0,18.5,29.41,NNW,338,0.0,1.8,53,0.00,,,0.00,WUHU216HW,2013-02-24 13:23:00,
2013-02-24 06:24:00,34.2,18.7,29.41,NNW,338,0.0,1.6,53,0.00,,,0.00,WUHU216HW,2013-02-24 13:24:00,
2013-02-24 06:28:00,34.2,18.4,29.41,North,0,0.4,0.9,52,0.00,,,0.00,WUHU216HW,2013-02-24 13:28:00,
2013-02-24 06:29:00,34.2,18.4,29.41,NNW,338,0.7,0.9,52,0.00,,,0.00,WUHU216HW,2013-02-24 13:29:00,
2013-02-24 06:30:00,34.2,18.4,29.41,NNW,338,0.4,0.9,52,0.00,,,0.00,WUHU216HW,2013-02-24 13:30:00,
2013-02-24 06:33:00,34.2,18.4,29.41,NNW,338,2.2,2.2,52,0.00,,,0.00,WUHU216HW,2013-02-24 13:33:00,
2013-02-24 06:34:00,34.2,18.4,29.41,NNE,23,2.2,2.2,52,0.00,,,0.00,WUHU216HW,2013-02-24 13:34:00,
2013-02-24 06:35:00,34.0,18.5,29.41,North,0,6.0,6.0,53,0.00,,,0.00,WUHU216HW,2013-02-24 13:35:00,
2013-02-24 06:38:00,33.8,18.4,29.41,NNW,338,1.8,6.0,53,0.00,,,0.00,WUHU216HW,2013-02-24 13:38:00,
2013-02-24 06:39:00,33.7,18.3,29.41,North,0,0.2,6.0,53,0.00,,,0.00,WUHU216HW,2013-02-24 13:39:00,
2013-02-24 06:40:00,33.7,18.3,29.41,NW,315,1.1,6.0,53,0.00,,,0.00,WUHU216HW,2013-02-24 13:40:00,
2013-02-24 06:43:00,33.7,18.3,29.41,West,270,4.0,6.0,53,0.00,,,0.00,WUHU216HW,2013-02-24 13:43:00,
2013-02-24 06:44:00,33.7,18.3,29.41,WSW,248,0.4,4.0,53,0.00,,,0.00,WUHU216HW,2013-02-24 13:44:00,
2013-02-24 06:45:00,33.5,18.1,29.41,NW,315,2.5,4.0,53,0.00,,,0.00,WUHU216HW,2013-02-24 13:45:00,
2013-02-24 06:48:00,33.5,18.1,29.41,NW,315,0.2,4.0,53,0.00,,,0.00,WUHU216HW,2013-02-24 13:48:00,
2013-02-24 06:49:00,33.5,18.1,29.41,North,0,0.4,4.0,53,0.00,,,0.00,WUHU216HW,2013-02-24 13:49:00,
2013-02-24 06:50:00,33.5,18.1,29.41,North,0,0.0,4.0,53,0.00,,,0.00,WUHU216HW,2013-02-24 13:50:00,
2013-02-24 06:53:00,33.5,18.1,29.41,NNW,338,0.0,2.5,53,0.00,,,0.00,WUHU216HW,2013-02-24 13:53:00,
2013-02-24 06:54:00,33.5,18.1,29.41,ENE,68,0.0,1.8,53,0.00,,,0.00,WUHU216HW,2013-02-24 13:54:00,
2013-02-24 06:55:00,33.7,18.3,29.41,NNW,338,0.0,1.8,53,0.00,,,0.00,WUHU216HW,2013-02-24 13:55:00,
2013-02-24 06:58:00,33.8,18.4,29.41,North,0,0.0,2.5,53,0.00,,,0.00,WUHU216HW,2013-02-24 13:58:00,
2013-02-24 06:59:00,33.8,18.4,29.41,North,0,0.0,2.5,53,0.00,,,0.00,WUHU216HW,2013-02-24 13:59:00,
2013-02-24 07:00:00,33.8,18.4,29.41,NE,45,0.7,2.5,53,0.00,,,0.00,WUHU216HW,2013-02-24 14:00:00,
2013-02-24 07:03:00,33.8,18.4,29.41,NE,45,0.0,2.5,53,0.00,,,0.00,WUHU216HW,2013-02-24 14:03:00,
2013-02-24 07:04:00,34.0,18.5,29.41,NE,45,0.0,2.5,53,0.00,,,0.00,WUHU216HW,2013-02-24 14:04:00,
2013-02-24 07:05:00,34.0,18.2,29.41,NNW,338,0.0,0.9,52,0.00,,,0.00,WUHU216HW,2013-02-24 14:05:00,
2013-02-24 07:06:00,34.0,18.2,29.41,NNW,338,0.0,0.9,52,0.00,,,0.00,WUHU216HW,2013-02-24 14:06:00,
2013-02-24 07:09:00,34.2,18.4,29.41,NNW,338,0.2,0.7,52,0.00,,,0.00,WUHU216HW,2013-02-24 14:09:00,
2013-02-24 07:10:00,34.0,18.2,29.41,NNW,338,0.0,0.2,52,0.00,,,0.00,WUHU216HW,2013-02-24 14:10:00,
2013-02-24 07:11:00,34.2,18.4,29.41,North,0,1.1,1.1,52,0.00,,,0.00,WUHU216HW,2013-02-24 14:11:00,
2013-02-24 07:14:00,34.2,18.4,29.41,North,0,0.0,1.1,52,0.00,,,0.00,WUHU216HW,2013-02-24 14:14:00,
2013-02-24 07:15:00,34.2,18.4,29.41,North,0,0.2,1.1,52,0.00,,,0.00,WUHU216HW,2013-02-24 14:15:00,
2013-02-24 07:16:00,34.2,18.4,29.41,North,0,0.2,1.1,52,0.00,,,0.00,WUHU216HW,2013-02-24 14:16:00,
2013-02-24 07:19:00,34.4,18.6,29.41,NNW,338,0.9,2.5,52,0.00,,,0.00,WUHU216HW,2013-02-24 14:19:00,
2013-02-24 07:20:00,34.4,18.6,29.40,North,0,1.1,2.5,52,0.00,,,0.00,WUHU216HW,2013-02-24 14:20:00,
2013-02-24 07:21:00,34.4,18.6,29.40,North,0,1.1,2.5,52,0.00,,,0.00,WUHU216HW,2013-02-24 14:21:00,
2013-02-24 07:24:00,34.4,18.6,29.40,NNW,338,1.8,2.5,52,0.00,,,0.00,WUHU216HW,2013-02-24 14:24:00,
2013-02-24 07:26:00,34.4,18.6,29.40,North,0,0.2,2.5,52,0.00,,,0.00,WUHU216HW,2013-02-24 14:26:00,
2013-02-24 07:29:00,34.4,18.6,29.41,North,0,1.8,2.5,52,0.00,,,0.00,WUHU216HW,2013-02-24 14:29:00,
2013-02-24 07:30:00,34.4,18.6,29.41,North,0,1.8,2.5,52,0.00,,,0.00,WUHU216HW,2013-02-24 14:30:00,
2013-02-24 07:31:00,34.4,18.6,29.41,North,0,0.2,2.5,52,0.00,,,0.00,WUHU216HW,2013-02-24 14:31:00,
2013-02-24 07:34:00,34.4,18.6,29.41,NNW,338,0.4,2.0,52,0.00,,,0.00,WUHU216HW,2013-02-24 14:34:00,
2013-02-24 07:35:00,34.4,18.6,29.41,NNW,338,0.4,2.0,52,0.00,,,0.00,WUHU216HW,2013-02-24 14:35:00,
2013-02-24 07:36:00,34.2,18.4,29.41,North,0,0.0,2.0,52,0.00,,,0.00,WUHU216HW,2013-02-24 14:36:00,
2013-02-24 07:39:00,34.4,18.6,29.41,NNW,338,1.8,2.5,52,0.00,,,0.00,WUHU216HW,2013-02-24 14:39:00,
2013-02-24 07:40:00,34.4,18.6,29.41,NNW,338,1.8,2.5,52,0.00,,,0.00,WUHU216HW,2013-02-24 14:40:00,
2013-02-24 07:41:00,34.4,18.6,29.41,North,0,2.7,2.7,52,0.00,,,0.00,WUHU216HW,2013-02-24 14:41:00,
2013-02-24 07:44:00,34.4,18.6,29.42,West,270,0.4,2.9,52,0.00,,,0.00,WUHU216HW,2013-02-24 14:44:00,
2013-02-24 07:45:00,34.4,18.6,29.42,West,270,0.4,2.9,52,0.00,,,0.00,WUHU216HW,2013-02-24 14:45:00,
2013-02-24 07:46:00,34.6,18.7,29.42,NNE,23,1.8,2.9,52,0.00,,,0.00,WUHU216HW,2013-02-24 14:46:00,
2013-02-24 07:50:00,34.6,18.7,29.42,NNW,338,1.6,2.9,52,0.00,,,0.00,WUHU216HW,2013-02-24 14:50:00,
2013-02-24 07:52:00,34.6,18.7,29.42,WSW,248,2.5,2.9,52,0.00,,,0.00,WUHU216HW,2013-02-24 14:52:00,
2013-02-24 07:55:00,34.6,18.7,29.42,North,0,7.4,7.4,52,0.00,,,0.00,WUHU216HW,2013-02-24 14:55:00,
2013-02-24 07:57:00,34.4,18.6,29.42,North,0,9.2,9.2,52,0.00,,,0.00,WUHU216HW,2013-02-24 14:57:00,
2013-02-24 08:00:00,34.0,18.5,29.42,NNE,23,6.9,9.2,53,0.00,,,0.00,WUHU216HW,2013-02-24 15:00:00,
2013-02-24 08:02:00,34.0,18.5,29.42,NNW,338,6.3,9.2,53,0.00,,,0.00,WUHU216HW,2013-02-24 15:02:00,
2013-02-24 08:05:00,33.8,18.8,29.42,NNE,23,6.0,9.2,54,0.00,,,0.00,WUHU216HW,2013-02-24 15:05:00,
2013-02-24 08:06:00,33.7,18.6,29.42,NNW,338,5.6,9.2,54,0.00,,,0.00,WUHU216HW,2013-02-24 15:06:00,
2013-02-24 08:07:00,33.7,18.6,29.42,NNW,338,11.0,11.0,54,0.00,,,0.00,WUHU216HW,2013-02-24 15:07:00,
2013-02-24 08:10:00,33.7,18.6,29.42,North,0,5.1,11.0,54,0.00,,,0.00,WUHU216HW,2013-02-24 15:10:00,
2013-02-24 08:11:00,33.7,18.6,29.42,North,0,5.1,11.0,54,0.00,,,0.00,WUHU216HW,2013-02-24 15:11:00,
2013-02-24 08:12:00,33.7,18.6,29.42,North,0,6.9,11.0,54,0.00,,,0.00,WUHU216HW,2013-02-24 15:12:00,
2013-02-24 08:15:00,33.8,18.8,29.42,North,0,6.9,11.0,54,0.00,,,0.00,WUHU216HW,2013-02-24 15:15:00,
2013-02-24 08:16:00,33.7,18.6,29.42,North,0,5.8,11.0,54,0.00,,,0.00,WUHU216HW,2013-02-24 15:16:00,
2013-02-24 08:17:00,33.8,18.8,29.42,NNW,338,6.3,6.9,54,0.00,,,0.00,WUHU216HW,2013-02-24 15:17:00,
2013-02-24 08:20:00,33.7,18.6,29.42,North,0,2.2,6.9,54,0.00,,,0.00,WUHU216HW,2013-02-24 15:20:00,
2013-02-24 08:21:00,33.8,18.8,29.42,NNW,338,1.3,6.9,54,0.00,,,0.00,WUHU216HW,2013-02-24 15:21:00,
2013-02-24 08:22:00,33.8,18.8,29.42,North,0,3.8,6.9,54,0.00,,,0.00,WUHU216HW,2013-02-24 15:22:00,
2013-02-24 08:23:00,33.8,18.8,29.42,North,0,3.8,6.9,54,0.00,,,0.00,WUHU216HW,2013-02-24 15:23:00,
2013-02-24 08:26:00,34.0,19.0,29.42,NNE,23,7.4,7.4,54,0.00,,,0.00,WUHU216HW,2013-02-24 15:26:00,
2013-02-24 08:27:00,34.2,18.7,29.42,NW,315,6.5,7.4,53,0.00,,,0.00,WUHU216HW,2013-02-24 15:27:00,
2013-02-24 08:28:00,34.2,18.7,29.42,NW,315,6.5,7.4,53,0.00,,,0.00,WUHU216HW,2013-02-24 15:28:00,
2013-02-24 08:31:00,34.2,18.7,29.42,NNW,338,8.1,9.2,53,0.00,,,0.00,WUHU216HW,2013-02-24 15:31:00,
2013-02-24 08:32:00,34.0,18.5,29.42,North,0,6.0,9.2,53,0.00,,,0.00,WUHU216HW,2013-02-24 15:32:00,
2013-02-24 08:33:00,34.0,18.5,29.42,North,0,6.0,9.2,53,0.00,,,0.00,WUHU216HW,2013-02-24 15:33:00,
2013-02-24 08:36:00,34.2,18.4,29.42,North,0,10.1,10.1,52,0.00,,,0.00,WUHU216HW,2013-02-24 15:36:00,
2013-02-24 08:38:00,34.2,18.4,29.41,North,0,6.7,10.1,52,0.00,,,0.00,WUHU216HW,2013-02-24 15:38:00,
2013-02-24 08:41:00,34.2,17.9,29.42,NNW,338,8.3,10.1,51,0.00,,,0.00,WUHU216HW,2013-02-24 15:41:00,
2013-02-24 08:43:00,34.4,18.1,29.42,North,0,5.4,10.1,51,0.00,,,0.00,WUHU216HW,2013-02-24 15:43:00,
2013-02-24 08:44:00,34.6,18.3,29.42,NNW,338,4.5,10.1,51,0.00,,,0.00,WUHU216HW,2013-02-24 15:44:00,
2013-02-24 08:46:00,34.6,18.3,29.42,North,0,4.7,8.3,51,0.00,,,0.00,WUHU216HW,2013-02-24 15:46:00,
2013-02-24 08:47:00,34.6,18.3,29.42,North,0,4.7,8.3,51,0.00,,,0.00,WUHU216HW,2013-02-24 15:47:00,
2013-02-24 08:48:00,34.6,18.3,29.42,North,0,8.5,8.5,51,0.00,,,0.00,WUHU216HW,2013-02-24 15:48:00,
2013-02-24 08:49:00,34.6,18.3,29.41,North,0,7.2,8.5,51,0.00,,,0.00,WUHU216HW,2013-02-24 15:49:00,
2013-02-24 08:51:00,34.7,18.5,29.41,NW,315,5.4,8.5,51,0.00,,,0.00,WUHU216HW,2013-02-24 15:51:00,
2013-02-24 08:52:00,34.7,18.5,29.41,NW,315,5.4,8.5,51,0.00,,,0.00,WUHU216HW,2013-02-24 15:52:00,
2013-02-24 08:53:00,34.7,18.0,29.41,NNW,338,7.8,8.5,50,0.00,,,0.00,WUHU216HW,2013-02-24 15:53:00,
2013-02-24 08:54:00,34.7,18.0,29.41,NW,315,7.6,8.5,50,0.00,,,0.00,WUHU216HW,2013-02-24 15:54:00,
2013-02-24 08:57:00,34.9,18.2,29.41,NW,315,5.4,9.6,50,0.00,,,0.00,WUHU216HW,2013-02-24 15:57:00,
2013-02-24 08:58:00,34.9,17.6,29.41,North,0,6.9,9.6,49,0.00,,,0.00,WUHU216HW,2013-02-24 15:58:00,
2013-02-24 08:59:00,34.9,17.6,29.41,North,0,6.9,9.6,49,0.00,,,0.00,WUHU216HW,2013-02-24 15:59:00,
2013-02-24 09:02:00,34.9,17.6,29.41,NNW,338,8.5,9.6,49,0.00,,,0.00,WUHU216HW,2013-02-24 16:02:00,
2013-02-24 09:03:00,34.7,17.5,29.42,NNW,338,8.7,9.6,49,0.00,,,0.00,WUHU216HW,2013-02-24 16:03:00,
2013-02-24 09:04:00,34.7,17.5,29.41,NNE,23,5.4,9.6,49,0.00,,,0.00,WUHU216HW,2013-02-24 16:04:00,
2013-02-24 09:07:00,34.7,18.0,29.41,NW,315,8.9,8.9,50,0.00,,,0.00,WUHU216HW,2013-02-24 16:07:00,
2013-02-24 09:08:00,34.7,18.0,29.41,NNE,23,6.9,8.9,50,0.00,,,0.00,WUHU216HW,2013-02-24 16:08:00,
2013-02-24 09:09:00,34.7,18.0,29.41,North,0,9.2,9.2,50,0.00,,,0.00,WUHU216HW,2013-02-24 16:09:00,
2013-02-24 09:12:00,34.7,18.0,29.41,NE,45,5.1,9.2,50,0.00,,,0.00,WUHU216HW,2013-02-24 16:12:00,
2013-02-24 09:13:00,34.9,18.2,29.41,NNW,338,4.0,9.2,50,0.00,,,0.00,WUHU216HW,2013-02-24 16:13:00,
2013-02-24 09:14:00,34.9,18.2,29.41,NNW,338,4.9,9.2,50,0.00,,,0.00,WUHU216HW,2013-02-24 16:14:00,
2013-02-24 09:17:00,34.9,18.2,29.41,North,0,6.3,9.2,50,0.00,,,0.00,WUHU216HW,2013-02-24 16:17:00,
2013-02-24 09:18:00,35.3,18.0,29.41,NNW,338,4.5,9.2,49,0.00,,,0.00,WUHU216HW,2013-02-24 16:18:00,
2013-02-24 09:19:00,35.3,18.5,29.41,NNW,338,2.2,6.3,50,0.00,,,0.00,WUHU216HW,2013-02-24 16:19:00,
2013-02-24 09:22:00,35.5,18.2,29.41,North,0,10.5,10.5,49,0.00,,,0.00,WUHU216HW,2013-02-24 16:22:00,
2013-02-24 09:24:00,35.6,18.4,29.41,NNW,338,4.9,10.5,49,0.00,,,0.00,WUHU216HW,2013-02-24 16:24:00,
2013-02-24 09:27:00,35.6,17.8,29.41,NW,315,4.9,10.5,48,0.00,,,0.00,WUHU216HW,2013-02-24 16:27:00,
2013-02-24 09:29:00,35.6,17.8,29.41,North,0,6.7,10.5,48,0.00,,,0.00,WUHU216HW,2013-02-24 16:29:00,
2013-02-24 09:32:00,36.0,17.6,29.40,North,0,5.1,7.4,47,0.00,,,0.00,WUHU216HW,2013-02-24 16:32:00,
2013-02-24 09:34:00,36.2,17.8,29.40,NNW,338,9.4,9.4,47,0.00,,,0.00,WUHU216HW,2013-02-24 16:34:00,
2013-02-24 09:37:00,36.5,17.7,29.40,NNW,338,5.6,9.4,46,0.00,,,0.00,WUHU216HW,2013-02-24 16:37:00,
2013-02-24 09:38:00,36.5,17.7,29.40,NNW,338,5.6,9.4,46,0.00,,,0.00,WUHU216HW,2013-02-24 16:38:00,
2013-02-24 09:39:00,36.7,17.8,29.40,NNW,338,5.4,9.4,46,0.00,,,0.00,WUHU216HW,2013-02-24 16:39:00,
2013-02-24 09:42:00,37.3,17.7,29.40,WNW,293,8.3,9.4,45,0.00,,,0.00,WUHU216HW,2013-02-24 16:42:00,
2013-02-24 09:43:00,37.4,17.9,29.40,North,0,6.9,9.4,45,0.00,,,0.00,WUHU216HW,2013-02-24 16:43:00,
2013-02-24 09:44:00,37.6,18.1,29.40,NNW,338,5.6,8.3,45,0.00,,,0.00,WUHU216HW,2013-02-24 16:44:00,
2013-02-24 09:47:00,37.8,17.7,29.40,NNE,23,6.0,9.4,44,0.00,,,0.00,WUHU216HW,2013-02-24 16:47:00,
2013-02-24 09:49:00,38.0,17.4,29.40,North,0,7.2,9.4,43,0.00,,,0.00,WUHU216HW,2013-02-24 16:49:00,
2013-02-24 09:50:00,38.2,17.6,29.40,NE,45,7.8,9.4,43,0.00,,,0.00,WUHU216HW,2013-02-24 16:50:00,
2013-02-24 09:53:00,38.5,16.8,29.40,NNW,338,6.5,9.4,41,0.00,,,0.00,WUHU216HW,2013-02-24 16:53:00,
2013-02-24 09:54:00,38.5,16.3,29.39,NNE,23,7.6,9.4,40,0.00,,,0.00,WUHU216HW,2013-02-24 16:54:00,
2013-02-24 09:55:00,38.5,16.3,29.40,North,0,5.4,9.4,40,0.00,,,0.00,WUHU216HW,2013-02-24 16:55:00,
2013-02-24 09:58:00,38.5,15.7,29.39,NNW,338,6.0,11.6,39,0.00,,,0.00,WUHU216HW,2013-02-24 16:58:00,
2013-02-24 09:59:00,38.7,15.8,29.39,NNW,338,8.9,11.6,39,0.00,,,0.00,WUHU216HW,2013-02-24 16:59:00,
2013-02-24 10:00:00,38.7,15.1,29.39,NNW,338,9.2,11.6,38,0.00,,,0.00,WUHU216HW,2013-02-24 17:00:00,
2013-02-24 10:03:00,38.7,14.5,29.39,NNW,338,6.9,11.6,37,0.00,,,0.00,WUHU216HW,2013-02-24 17:03:00,
2013-02-24 10:04:00,38.9,14.7,29.39,NE,45,6.3,11.6,37,0.00,,,0.00,WUHU216HW,2013-02-24 17:04:00,
2013-02-24 10:05:00,38.9,14.1,29.39,NNW,338,6.3,11.6,36,0.00,,,0.00,WUHU216HW,2013-02-24 17:05:00,
2013-02-24 10:08:00,39.1,13.5,29.39,NNW,338,10.5,10.5,35,0.00,,,0.00,WUHU216HW,2013-02-24 17:08:00,
2013-02-24 10:10:00,39.1,13.5,29.39,NW,315,9.2,10.5,35,0.00,,,0.00,WUHU216HW,2013-02-24 17:10:00,
2013-02-24 10:11:00,39.1,13.5,29.39,NW,315,7.2,10.5,35,0.00,,,0.00,WUHU216HW,2013-02-24 17:11:00,
2013-02-24 10:13:00,39.2,13.7,29.39,WNW,293,8.5,10.5,35,0.00,,,0.00,WUHU216HW,2013-02-24 17:13:00,
2013-02-24 10:15:00,39.4,13.2,29.39,NNE,23,4.0,10.5,34,0.00,,,0.00,WUHU216HW,2013-02-24 17:15:00,
2013-02-24 10:16:00,39.6,12.7,29.39,NNW,338,7.4,10.5,33,0.00,,,0.00,WUHU216HW,2013-02-24 17:16:00,
2013-02-24 10:18:00,39.6,12.7,29.39,NNW,338,9.4,10.5,33,0.00,,,0.00,WUHU216HW,2013-02-24 17:18:00,
2013-02-24 10:20:00,39.8,12.9,29.39,NW,315,5.1,10.5,33,0.00,,,0.00,WUHU216HW,2013-02-24 17:20:00,
2013-02-24 10:21:00,40.0,12.4,29.39,North,0,6.5,9.4,32,0.00,,,0.00,WUHU216HW,2013-02-24 17:21:00,
2013-02-24 10:23:00,40.1,12.5,29.39,NW,315,5.4,9.4,32,0.00,,,0.00,WUHU216HW,2013-02-24 17:23:00,
2013-02-24 10:25:00,40.3,12.7,29.39,NNW,338,8.5,9.4,32,0.00,,,0.00,WUHU216HW,2013-02-24 17:25:00,
2013-02-24 10:26:00,40.3,12.7,29.39,NNE,23,8.3,9.4,32,0.00,,,0.00,WUHU216HW,2013-02-24 17:26:00,
2013-02-24 10:28:00,40.3,12.7,29.39,North,0,6.3,8.5,32,0.00,,,0.00,WUHU216HW,2013-02-24 17:28:00,
2013-02-24 10:30:00,40.3,12.7,29.39,NNW,338,8.3,8.5,32,0.00,,,0.00,WUHU216HW,2013-02-24 17:30:00,
2013-02-24 10:31:00,40.3,12.7,29.39,NNW,338,3.4,8.9,32,0.00,,,0.00,WUHU216HW,2013-02-24 17:31:00,
2013-02-24 10:33:00,40.5,12.9,29.39,North,0,6.0,8.9,32,0.00,,,0.00,WUHU216HW,2013-02-24 17:33:00,
2013-02-24 10:35:00,40.7,13.1,29.39,NNW,338,6.9,8.9,32,0.00,,,0.00,WUHU216HW,2013-02-24 17:35:00,
2013-02-24 10:36:00,41.0,13.3,29.38,NNW,338,7.4,8.9,32,0.00,,,0.00,WUHU216HW,2013-02-24 17:36:00,
2013-02-24 10:38:00,41.4,13.7,29.38,North,0,6.3,8.9,32,0.00,,,0.00,WUHU216HW,2013-02-24 17:38:00,
2013-02-24 10:40:00,41.6,13.8,29.39,NNW,338,5.8,7.6,32,0.00,,,0.00,WUHU216HW,2013-02-24 17:40:00,
2013-02-24 10:41:00,41.6,13.8,29.39,NNW,338,5.8,7.6,32,0.00,,,0.00,WUHU216HW,2013-02-24 17:41:00,
2013-02-24 10:43:00,41.8,14.0,29.39,North,0,9.2,9.2,32,0.00,,,0.00,WUHU216HW,2013-02-24 17:43:00,
2013-02-24 10:45:00,41.9,14.1,29.39,North,0,5.1,9.2,32,0.00,,,0.00,WUHU216HW,2013-02-24 17:45:00,
2013-02-24 10:46:00,41.9,14.1,29.39,North,0,5.1,9.2,32,0.00,,,0.00,WUHU216HW,2013-02-24 17:46:00,
2013-02-24 10:48:00,41.8,14.0,29.39,NNE,23,4.7,9.8,32,0.00,,,0.00,WUHU216HW,2013-02-24 17:48:00,
2013-02-24 10:50:00,41.9,14.1,29.39,NNE,23,9.2,9.8,32,0.00,,,0.00,WUHU216HW,2013-02-24 17:50:00,
2013-02-24 10:51:00,41.9,14.1,29.39,NNE,23,9.2,9.8,32,0.00,,,0.00,WUHU216HW,2013-02-24 17:51:00,
2013-02-24 10:52:00,42.1,14.2,29.39,North,0,9.6,9.8,32,0.00,,,0.00,WUHU216HW,2013-02-24 17:52:00,
2013-02-24 10:53:00,42.1,14.2,29.39,North,0,8.3,13.4,32,0.00,,,0.00,WUHU216HW,2013-02-24 17:53:00,
2013-02-24 10:55:00,42.1,14.2,29.39,NNE,23,3.4,13.4,32,0.00,,,0.00,WUHU216HW,2013-02-24 17:55:00,
2013-02-24 10:56:00,42.1,14.2,29.39,North,0,11.4,13.4,32,0.00,,,0.00,WUHU216HW,2013-02-24 17:56:00,
2013-02-24 10:57:00,42.1,14.2,29.39,North,0,10.3,13.4,32,0.00,,,0.00,WUHU216HW,2013-02-24 17:57:00,
2013-02-24 10:59:00,42.1,14.2,29.38,North,0,7.6,13.4,32,0.00,,,0.00,WUHU216HW,2013-02-24 17:59:00,
2013-02-24 11:00:00,42.1,14.2,29.38,NE,45,8.5,13.4,32,0.00,,,0.00,WUHU216HW,2013-02-24 18:00:00,
2013-02-24 11:01:00,42.1,14.2,29.38,North,0,8.5,13.4,32,0.00,,,0.00,WUHU216HW,2013-02-24 18:01:00,
2013-02-24 11:02:00,41.9,14.1,29.38,North,0,5.4,13.4,32,0.00,,,0.00,WUHU216HW,2013-02-24 18:02:00,
2013-02-24 11:04:00,41.9,14.1,29.38,NW,315,5.8,11.4,32,0.00,,,0.00,WUHU216HW,2013-02-24 18:04:00,
2013-02-24 11:05:00,41.9,14.1,29.38,North,0,5.4,10.3,32,0.00,,,0.00,WUHU216HW,2013-02-24 18:05:00,
2013-02-24 11:06:00,42.1,14.2,29.38,NNW,338,9.2,10.3,32,0.00,,,0.00,WUHU216HW,2013-02-24 18:06:00,
2013-02-24 11:07:00,42.1,13.6,29.38,NE,45,8.3,10.1,31,0.00,,,0.00,WUHU216HW,2013-02-24 18:07:00,
2013-02-24 11:09:00,42.1,14.2,29.38,North,0,7.6,10.1,32,0.00,,,0.00,WUHU216HW,2013-02-24 18:09:00,
2013-02-24 11:10:00,42.1,14.2,29.38,North,0,11.4,11.4,32,0.00,,,0.00,WUHU216HW,2013-02-24 18:10:00,
2013-02-24 11:11:00,42.1,13.6,29.38,NE,45,7.6,11.4,31,0.00,,,0.00,WUHU216HW,2013-02-24 18:11:00,
2013-02-24 11:12:00,42.1,13.6,29.38,North,0,9.6,11.4,31,0.00,,,0.00,WUHU216HW,2013-02-24 18:12:00,
2013-02-24 11:14:00,42.1,13.6,29.38,NNE,23,6.0,11.4,31,0.00,,,0.00,WUHU216HW,2013-02-24 18:14:00,
2013-02-24 11:15:00,42.1,14.2,29.37,NE,45,6.3,11.4,32,0.00,,,0.00,WUHU216HW,2013-02-24 18:15:00,
2013-02-24 11:16:00,42.3,13.8,29.38,NNE,23,4.7,11.4,31,0.00,,,0.00,WUHU216HW,2013-02-24 18:16:00,
2013-02-24 11:17:00,42.3,13.8,29.37,NNW,338,8.5,11.4,31,0.00,,,0.00,WUHU216HW,2013-02-24 18:17:00,
2013-02-24 11:19:00,42.5,13.2,29.37,North,0,9.8,11.4,30,0.00,,,0.00,WUHU216HW,2013-02-24 18:19:00,
2013-02-24 11:21:00,42.5,13.2,29.37,NNW,338,8.9,9.8,30,0.00,,,0.00,WUHU216HW,2013-02-24 18:21:00,
2013-02-24 11:22:00,42.5,13.2,29.37,NNW,338,7.2,10.1,30,0.00,,,0.00,WUHU216HW,2013-02-24 18:22:00,
2013-02-24 11:24:00,42.5,13.2,29.37,WNW,293,12.5,12.5,30,0.00,,,0.00,WUHU216HW,2013-02-24 18:24:00,
2013-02-24 11:26:00,42.3,12.2,29.37,WNW,293,8.3,12.5,29,0.00,,,0.00,WUHU216HW,2013-02-24 18:26:00,
2013-02-24 11:27:00,42.5,12.3,29.37,NNW,338,4.9,12.5,29,0.00,,,0.00,WUHU216HW,2013-02-24 18:27:00,
2013-02-24 11:29:00,42.3,12.2,29.37,NNW,338,7.6,12.5,29,0.00,,,0.00,WUHU216HW,2013-02-24 18:29:00,
2013-02-24 11:31:00,42.5,13.2,29.37,North,0,4.0,12.5,30,0.00,,,0.00,WUHU216HW,2013-02-24 18:31:00,
2013-02-24 11:32:00,42.7,13.3,29.37,NW,315,3.8,12.5,30,0.00,,,0.00,WUHU216HW,2013-02-24 18:32:00,
2013-02-24 11:34:00,42.8,12.6,29.37,NNE,23,11.0,13.4,29,0.00,,,0.00,WUHU216HW,2013-02-24 18:34:00,
2013-02-24 11:36:00,42.8,13.5,29.37,NW,315,12.1,13.4,30,0.00,,,0.00,WUHU216HW,2013-02-24 18:36:00,
2013-02-24 11:37:00,42.8,13.5,29.37,NNE,23,9.8,13.4,30,0.00,,,0.00,WUHU216HW,2013-02-24 18:37:00,
2013-02-24 11:39:00,42.8,13.5,29.36,NNW,338,4.0,13.4,30,0.00,,,0.00,WUHU216HW,2013-02-24 18:39:00,
2013-02-24 11:41:00,42.8,13.5,29.36,NNW,338,5.4,13.4,30,0.00,,,0.00,WUHU216HW,2013-02-24 18:41:00,
2013-02-24 11:42:00,42.8,13.5,29.36,NNW,338,4.3,12.1,30,0.00,,,0.00,WUHU216HW,2013-02-24 18:42:00,
2013-02-24 11:44:00,43.0,13.7,29.36,North,0,10.1,12.1,30,0.00,,,0.00,WUHU216HW,2013-02-24 18:44:00,
2013-02-24 11:46:00,43.2,13.9,29.36,North,0,8.9,10.1,30,0.00,,,0.00,WUHU216HW,2013-02-24 18:46:00,
2013-02-24 11:47:00,43.2,13.9,29.36,NNW,338,7.4,10.1,30,0.00,,,0.00,WUHU216HW,2013-02-24 18:47:00,
2013-02-24 11:48:00,43.2,14.5,29.36,NNW,338,6.3,10.1,31,0.00,,,0.00,WUHU216HW,2013-02-24 18:48:00,
2013-02-24 11:50:00,43.4,15.3,29.36,North,0,7.4,10.1,32,0.00,,,0.00,WUHU216HW,2013-02-24 18:50:00,
2013-02-24 11:51:00,43.6,14.9,29.36,NNW,338,3.8,10.1,31,0.00,,,0.00,WUHU216HW,2013-02-24 18:51:00,
2013-02-24 11:52:00,43.6,14.9,29.36,NNW,338,3.8,10.1,31,0.00,,,0.00,WUHU216HW,2013-02-24 18:52:00,
2013-02-24 11:53:00,43.7,14.9,29.36,North,0,8.5,10.1,31,0.00,,,0.00,WUHU216HW,2013-02-24 18:53:00,
2013-02-24 11:55:00,43.9,14.5,29.36,NW,315,6.0,8.9,30,0.00,,,0.00,WUHU216HW,2013-02-24 18:55:00,
2013-02-24 11:57:00,43.9,14.5,29.35,NE,45,11.4,11.4,30,0.00,,,0.00,WUHU216HW,2013-02-24 18:57:00,
2013-02-24 12:00:00,44.3,15.5,29.35,NNE,23,7.2,11.4,31,0.00,,,0.00,WUHU216HW,2013-02-24 19:00:00,
2013-02-24 12:02:00,44.5,15.7,29.35,NNE,23,6.3,11.4,31,0.00,,,0.00,WUHU216HW,2013-02-24 19:02:00,
2013-02-24 12:03:00,44.6,15.1,29.35,NNE,23,11.4,11.4,30,0.00,,,0.00,WUHU216HW,2013-02-24 19:03:00,
2013-02-24 12:05:00,44.8,15.9,29.36,NNE,23,8.5,11.4,31,0.00,,,0.00,WUHU216HW,2013-02-24 19:05:00,
2013-02-24 12:07:00,44.8,15.9,29.35,North,0,5.8,11.4,31,0.00,,,0.00,WUHU216HW,2013-02-24 19:07:00,
2013-02-24 12:08:00,44.8,15.9,29.35,North,0,6.3,11.4,31,0.00,,,0.00,WUHU216HW,2013-02-24 19:08:00,
2013-02-24 12:10:00,44.8,15.3,29.35,NNE,23,13.9,13.9,30,0.00,,,0.00,WUHU216HW,2013-02-24 19:10:00,
2013-02-24 12:12:00,44.8,15.3,29.35,NW,315,5.1,13.9,30,0.00,,,0.00,WUHU216HW,2013-02-24 19:12:00,
2013-02-24 12:13:00,44.8,15.3,29.35,WSW,248,3.4,13.9,30,0.00,,,0.00,WUHU216HW,2013-02-24 19:13:00,
2013-02-24 12:15:00,45.0,15.5,29.35,NNE,23,7.6,13.9,30,0.00,,,0.00,WUHU216HW,2013-02-24 19:15:00,
2013-02-24 12:17:00,45.0,14.6,29.34,NNW,338,8.5,13.9,29,0.00,,,0.00,WUHU216HW,2013-02-24 19:17:00,
2013-02-24 12:18:00,45.0,14.6,29.34,NNW,338,7.6,13.9,29,0.00,,,0.00,WUHU216HW,2013-02-24 19:18:00,
2013-02-24 12:20:00,45.2,14.7,29.34,North,0,11.2,11.2,29,0.00,,,0.00,WUHU216HW,2013-02-24 19:20:00,
2013-02-24 12:22:00,45.2,14.7,29.34,North,0,5.6,11.2,29,0.00,,,0.00,WUHU216HW,2013-02-24 19:22:00,
2013-02-24 12:23:00,45.2,14.7,29.34,North,0,5.6,11.2,29,0.00,,,0.00,WUHU216HW,2013-02-24 19:23:00,
2013-02-24 12:25:00,45.2,14.7,29.34,NNW,338,2.5,11.2,29,0.00,,,0.00,WUHU216HW,2013-02-24 19:25:00,
2013-02-24 12:27:00,45.4,14.9,29.34,NE,45,3.4,11.2,29,0.00,,,0.00,WUHU216HW,2013-02-24 19:27:00,
2013-02-24 12:28:00,45.4,14.9,29.34,NE,45,3.4,11.2,29,0.00,,,0.00,WUHU216HW,2013-02-24 19:28:00,
2013-02-24 12:31:00,45.5,15.0,29.34,NNE,23,2.7,7.2,29,0.00,,,0.00,WUHU216HW,2013-02-24 19:31:00,
2013-02-24 12:32:00,45.7,15.2,29.34,NNW,338,4.0,7.2,29,0.00,,,0.00,WUHU216HW,2013-02-24 19:32:00,
2013-02-24 12:33:00,45.7,15.2,29.34,NNW,338,4.0,7.2,29,0.00,,,0.00,WUHU216HW,2013-02-24 19:33:00,
2013-02-24 12:34:00,45.5,15.0,29.34,NW,315,4.0,7.2,29,0.00,,,0.00,WUHU216HW,2013-02-24 19:34:00,
2013-02-24 12:36:00,45.5,14.1,29.33,North,0,6.3,7.4,28,0.00,,,0.00,WUHU216HW,2013-02-24 19:36:00,
2013-02-24 12:37:00,45.5,14.1,29.33,WNW,293,6.3,7.4,28,0.00,,,0.00,WUHU216HW,2013-02-24 19:37:00,
2013-02-24 12:38:00,45.5,14.1,29.33,NNW,338,4.5,7.4,28,0.00,,,0.00,WUHU216HW,2013-02-24 19:38:00,
2013-02-24 12:39:00,45.5,14.1,29.33,NNW,338,4.5,7.4,28,0.00,,,0.00,WUHU216HW,2013-02-24 19:39:00,
2013-02-24 12:41:00,45.5,14.1,29.33,WNW,293,7.6,7.6,28,0.00,,,0.00,WUHU216HW,2013-02-24 19:41:00,
2013-02-24 12:42:00,45.7,13.3,29.33,NNW,338,11.6,11.6,27,0.00,,,0.00,WUHU216HW,2013-02-24 19:42:00,
2013-02-24 12:43:00,45.9,13.5,29.33,North,0,5.8,11.6,27,0.00,,,0.00,WUHU216HW,2013-02-24 19:43:00,
2013-02-24 12:44:00,45.9,13.5,29.33,North,0,5.8,11.6,27,0.00,,,0.00,WUHU216HW,2013-02-24 19:44:00,
2013-02-24 12:46:00,45.9,14.4,29.33,North,0,5.1,11.6,28,0.00,,,0.00,WUHU216HW,2013-02-24 19:46:00,
2013-02-24 12:48:00,45.9,13.5,29.33,NNW,338,4.0,11.6,27,0.00,,,0.00,WUHU216HW,2013-02-24 19:48:00,
2013-02-24 12:49:00,46.1,13.7,29.33,NNW,338,5.8,11.6,27,0.00,,,0.00,WUHU216HW,2013-02-24 19:49:00,
2013-02-24 12:51:00,46.1,13.7,29.33,NNW,338,6.9,13.6,27,0.00,,,0.00,WUHU216HW,2013-02-24 19:51:00,
2013-02-24 12:53:00,45.9,13.5,29.33,North,0,6.3,13.6,27,0.00,,,0.00,WUHU216HW,2013-02-24 19:53:00,
2013-02-24 12:54:00,45.7,13.3,29.33,NW,315,7.8,13.6,27,0.00,,,0.00,WUHU216HW,2013-02-24 19:54:00,
2013-02-24 12:57:00,45.7,13.3,29.33,NW,315,8.9,13.6,27,0.00,,,0.00,WUHU216HW,2013-02-24 19:57:00,
2013-02-24 12:58:00,45.7,13.3,29.32,WNW,293,6.3,13.6,27,0.00,,,0.00,WUHU216HW,2013-02-24 19:58:00,
2013-02-24 12:59:00,45.7,13.3,29.33,NNW,338,6.9,13.6,27,0.00,,,0.00,WUHU216HW,2013-02-24 19:59:00,
2013-02-24 13:02:00,45.9,13.5,29.32,North,0,6.9,8.9,27,0.00,,,0.00,WUHU216HW,2013-02-24 20:02:00,
2013-02-24 13:03:00,45.9,12.6,29.32,NW,315,8.9,8.9,26,0.00,,,0.00,WUHU216HW,2013-02-24 20:03:00,
2013-02-24 13:04:00,45.9,12.6,29.32,NW,315,8.9,8.9,26,0.00,,,0.00,WUHU216HW,2013-02-24 20:04:00,
2013-02-24 13:07:00,45.7,11.5,29.33,NW,315,7.2,11.2,25,0.00,,,0.00,WUHU216HW,2013-02-24 20:07:00,
2013-02-24 13:08:00,45.5,11.4,29.33,NNE,23,2.5,11.2,25,0.00,,,0.00,WUHU216HW,2013-02-24 20:08:00,
2013-02-24 13:09:00,45.5,11.4,29.32,WNW,293,3.1,11.2,25,0.00,,,0.00,WUHU216HW,2013-02-24 20:09:00,
2013-02-24 13:12:00,45.5,11.4,29.32,SSW,203,5.8,11.2,25,0.00,,,0.00,WUHU216HW,2013-02-24 20:12:00,
2013-02-24 13:13:00,45.7,11.5,29.32,North,0,9.2,11.2,25,0.00,,,0.00,WUHU216HW,2013-02-24 20:13:00,
2013-02-24 13:14:00,45.7,11.5,29.32,North,0,11.2,11.2,25,0.00,,,0.00,WUHU216HW,2013-02-24 20:14:00,
2013-02-24 13:17:00,45.5,11.4,29.32,ENE,68,7.8,11.2,25,0.00,,,0.00,WUHU216HW,2013-02-24 20:17:00,
2013-02-24 13:18:00,45.4,10.4,29.32,NNW,338,6.3,11.2,24,0.00,,,0.00,WUHU216HW,2013-02-24 20:18:00,
2013-02-24 13:19:00,45.4,10.4,29.32,NNW,338,6.3,11.2,24,0.00,,,0.00,WUHU216HW,2013-02-24 20:19:00,
2013-02-24 13:22:00,45.5,11.4,29.32,NNE,23,7.4,11.2,25,0.00,,,0.00,WUHU216HW,2013-02-24 20:22:00,
2013-02-24 13:24:00,45.7,11.5,29.32,NNW,338,5.8,11.2,25,0.00,,,0.00,WUHU216HW,2013-02-24 20:24:00,
2013-02-24 13:27:00,45.7,10.6,29.32,NW,315,3.4,11.6,24,0.00,,,0.00,WUHU216HW,2013-02-24 20:27:00,
2013-02-24 13:28:00,45.5,10.4,29.32,WNW,293,6.9,11.6,24,0.00,,,0.00,WUHU216HW,2013-02-24 20:28:00,
2013-02-24 13:29:00,45.4,10.4,29.32,ENE,68,8.1,11.6,24,0.00,,,0.00,WUHU216HW,2013-02-24 20:29:00,
2013-02-24 13:32:00,45.2,10.2,29.32,NW,315,7.6,11.6,24,0.00,,,0.00,WUHU216HW,2013-02-24 20:32:00,
2013-02-24 13:34:00,45.2,10.2,29.32,NNW,338,10.5,11.6,24,0.00,,,0.00,WUHU216HW,2013-02-24 20:34:00,
2013-02-24 13:37:00,45.0,10.0,29.32,NNE,23,5.6,14.3,24,0.00,,,0.00,WUHU216HW,2013-02-24 20:37:00,
2013-02-24 13:39:00,44.8,10.8,29.32,WNW,293,3.4,14.3,25,0.00,,,0.00,WUHU216HW,2013-02-24 20:39:00,
2013-02-24 13:43:00,44.8,10.8,29.32,SSW,203,5.8,14.3,25,0.00,,,0.00,WUHU216HW,2013-02-24 20:43:00,
2013-02-24 13:44:00,44.6,10.6,29.32,North,0,7.4,14.3,25,0.00,,,0.00,WUHU216HW,2013-02-24 20:44:00,
2013-02-24 13:48:00,44.6,10.6,29.31,WNW,293,5.8,11.4,25,0.00,,,0.00,WUHU216HW,2013-02-24 20:48:00,
2013-02-24 13:49:00,44.5,10.4,29.31,NNW,338,13.4,13.4,25,0.00,,,0.00,WUHU216HW,2013-02-24 20:49:00,
2013-02-24 13:50:00,44.5,10.4,29.31,NW,315,6.9,13.4,25,0.00,,,0.00,WUHU216HW,2013-02-24 20:50:00,
2013-02-24 13:53:00,44.1,10.2,29.31,NW,315,8.5,13.4,25,0.00,,,0.00,WUHU216HW,2013-02-24 20:53:00,
2013-02-24 13:54:00,44.1,10.2,29.32,North,0,9.8,13.4,25,0.00,,,0.00,WUHU216HW,2013-02-24 20:54:00,
2013-02-24 13:55:00,44.3,10.3,29.31,North,0,7.6,13.4,25,0.00,,,0.00,WUHU216HW,2013-02-24 20:55:00,
2013-02-24 13:58:00,44.3,11.2,29.31,NNW,338,11.9,13.4,26,0.00,,,0.00,WUHU216HW,2013-02-24 20:58:00,
2013-02-24 13:59:00,44.5,10.4,29.31,NNE,23,9.2,11.9,25,0.00,,,0.00,WUHU216HW,2013-02-24 20:59:00,
2013-02-24 14:00:00,44.3,10.3,29.31,WNW,293,12.8,12.8,25,0.00,,,0.00,WUHU216HW,2013-02-24 21:00:00,
2013-02-24 14:03:00,44.3,10.3,29.31,NNW,338,14.3,14.3,25,0.00,,,0.00,WUHU216HW,2013-02-24 21:03:00,
2013-02-24 14:04:00,44.3,10.3,29.31,NNE,23,10.5,14.3,25,0.00,,,0.00,WUHU216HW,2013-02-24 21:04:00,
2013-02-24 14:05:00,44.1,10.2,29.31,West,270,9.2,14.3,25,0.00,,,0.00,WUHU216HW,2013-02-24 21:05:00,
2013-02-24 14:08:00,44.3,11.2,29.31,NW,315,11.9,14.3,26,0.00,,,0.00,WUHU216HW,2013-02-24 21:08:00,
2013-02-24 14:09:00,44.3,10.3,29.31,North,0,14.8,14.8,25,0.00,,,0.00,WUHU216HW,2013-02-24 21:09:00,
2013-02-24 14:10:00,44.1,11.1,29.31,NNW,338,6.5,14.8,26,0.00,,,0.00,WUHU216HW,2013-02-24 21:10:00,
2013-02-24 14:11:00,44.1,11.1,29.31,NNW,338,6.5,14.8,26,0.00,,,0.00,WUHU216HW,2013-02-24 21:11:00,
2013-02-24 14:13:00,44.1,11.1,29.31,NNW,338,13.4,14.8,26,0.00,,,0.00,WUHU216HW,2013-02-24 21:13:00,
2013-02-24 14:14:00,44.1,12.0,29.31,WNW,293,13.4,14.8,27,0.00,,,0.00,WUHU216HW,2013-02-24 21:14:00,
2013-02-24 14:15:00,43.9,10.0,29.31,NNW,338,13.4,14.8,25,0.00,,,0.00,WUHU216HW,2013-02-24 21:15:00,
2013-02-24 14:16:00,43.9,10.0,29.31,NW,315,8.5,14.8,25,0.00,,,0.00,WUHU216HW,2013-02-24 21:16:00,
2013-02-24 14:19:00,43.9,10.9,29.31,NNW,338,10.7,13.4,26,0.00,,,0.00,WUHU216HW,2013-02-24 21:19:00,
2013-02-24 14:20:00,43.9,10.9,29.32,NNE,23,6.7,13.4,26,0.00,,,0.00,WUHU216HW,2013-02-24 21:20:00,
2013-02-24 14:21:00,43.9,10.9,29.31,North,0,10.1,13.4,26,0.00,,,0.00,WUHU216HW,2013-02-24 21:21:00,
2013-02-24 14:24:00,43.9,10.0,29.31,NNW,338,10.7,13.4,25,0.00,,,0.00,WUHU216HW,2013-02-24 21:24:00,
2013-02-24 14:25:00,43.7,9.8,29.31,North,0,10.7,13.4,25,0.00,,,0.00,WUHU216HW,2013-02-24 21:25:00,
2013-02-24 14:26:00,43.6,9.6,29.31,NNE,23,12.1,15.7,25,0.00,,,0.00,WUHU216HW,2013-02-24 21:26:00,
2013-02-24 14:29:00,43.2,11.2,29.31,NW,315,13.0,15.7,27,0.00,,,0.00,WUHU216HW,2013-02-24 21:29:00,
2013-02-24 14:30:00,43.2,11.2,29.31,North,0,8.9,15.7,27,0.00,,,0.00,WUHU216HW,2013-02-24 21:30:00,
2013-02-24 14:31:00,43.0,11.0,29.31,NNW,338,8.5,15.7,27,0.00,,,0.00,WUHU216HW,2013-02-24 21:31:00,
2013-02-24 14:34:00,43.0,11.0,29.31,NNW,338,8.9,15.7,27,0.00,,,0.00,WUHU216HW,2013-02-24 21:34:00,
2013-02-24 14:35:00,42.8,10.8,29.31,NNW,338,11.9,13.0,27,0.00,,,0.00,WUHU216HW,2013-02-24 21:35:00,
2013-02-24 14:37:00,42.7,10.6,29.31,NNW,338,13.0,13.0,27,0.00,,,0.00,WUHU216HW,2013-02-24 21:37:00,
2013-02-24 14:39:00,42.7,11.5,29.31,NNE,23,12.8,13.0,28,0.00,,,0.00,WUHU216HW,2013-02-24 21:39:00,
2013-02-24 14:40:00,42.7,11.5,29.31,NNE,23,12.8,13.0,28,0.00,,,0.00,WUHU216HW,2013-02-24 21:40:00,
2013-02-24 14:42:00,42.7,10.6,29.31,NNW,338,11.2,13.0,27,0.00,,,0.00,WUHU216HW,2013-02-24 21:42:00,
2013-02-24 14:44:00,42.5,10.5,29.32,NNW,338,12.1,14.3,27,0.00,,,0.00,WUHU216HW,2013-02-24 21:44:00,
2013-02-24 14:45:00,42.5,10.5,29.32,NNW,338,12.1,14.3,27,0.00,,,0.00,WUHU216HW,2013-02-24 21:45:00,
2013-02-24 14:46:00,42.5,10.5,29.32,NNW,338,9.8,14.3,27,0.00,,,0.00,WUHU216HW,2013-02-24 21:46:00,
2013-02-24 14:47:00,42.5,11.4,29.32,North,0,6.0,14.3,28,0.00,,,0.00,WUHU216HW,2013-02-24 21:47:00,
2013-02-24 14:49:00,42.5,10.5,29.32,NW,315,10.5,14.3,27,0.00,,,0.00,WUHU216HW,2013-02-24 21:49:00,
2013-02-24 14:50:00,42.5,10.5,29.32,NW,315,10.5,14.3,27,0.00,,,0.00,WUHU216HW,2013-02-24 21:50:00,
2013-02-24 14:51:00,42.7,10.6,29.32,WNW,293,5.6,14.3,27,0.00,,,0.00,WUHU216HW,2013-02-24 21:51:00,
2013-02-24 14:52:00,42.7,10.6,29.32,NW,315,12.1,14.3,27,0.00,,,0.00,WUHU216HW,2013-02-24 21:52:00,
2013-02-24 14:55:00,42.7,10.6,29.32,NNW,338,6.5,12.1,27,0.00,,,0.00,WUHU216HW,2013-02-24 21:55:00,
2013-02-24 14:56:00,42.7,10.6,29.32,North,0,4.7,12.1,27,0.00,,,0.00,WUHU216HW,2013-02-24 21:56:00,
2013-02-24 14:57:00,42.7,10.6,29.32,North,0,11.0,12.1,27,0.00,,,0.00,WUHU216HW,2013-02-24 21:57:00,
2013-02-24 15:00:00,42.8,10.8,29.32,NE,45,5.4,12.1,27,0.00,,,0.00,WUHU216HW,2013-02-24 22:00:00,
2013-02-24 15:01:00,42.8,10.8,29.32,NNW,338,5.4,12.1,27,0.00,,,0.00,WUHU216HW,2013-02-24 22:01:00,
2013-02-24 15:02:00,42.8,10.8,29.32,West,270,6.9,11.0,27,0.00,,,0.00,WUHU216HW,2013-02-24 22:02:00,
2013-02-24 15:05:00,43.0,11.0,29.32,NW,315,8.5,11.4,27,0.00,,,0.00,WUHU216HW,2013-02-24 22:05:00,
2013-02-24 15:06:00,43.0,11.0,29.32,North,0,7.4,11.4,27,0.00,,,0.00,WUHU216HW,2013-02-24 22:06:00,
2013-02-24 15:07:00,43.0,11.0,29.32,North,0,13.0,13.0,27,0.00,,,0.00,WUHU216HW,2013-02-24 22:07:00,
2013-02-24 15:10:00,42.8,10.8,29.32,North,0,9.2,13.0,27,0.00,,,0.00,WUHU216HW,2013-02-24 22:10:00,
2013-02-24 15:11:00,42.8,10.8,29.32,NW,315,13.6,13.6,27,0.00,,,0.00,WUHU216HW,2013-02-24 22:11:00,
2013-02-24 15:13:00,42.8,10.8,29.32,NNW,338,14.3,14.3,27,0.00,,,0.00,WUHU216HW,2013-02-24 22:13:00,
2013-02-24 15:15:00,42.5,10.5,29.32,NNW,338,11.4,14.8,27,0.00,,,0.00,WUHU216HW,2013-02-24 22:15:00,
2013-02-24 15:16:00,42.5,9.6,29.32,North,0,11.6,14.8,26,0.00,,,0.00,WUHU216HW,2013-02-24 22:16:00,
2013-02-24 15:18:00,42.3,8.6,29.32,NNW,338,12.3,14.8,25,0.00,,,0.00,WUHU216HW,2013-02-24 22:18:00,
2013-02-24 15:20:00,42.3,8.6,29.33,North,0,16.8,16.8,25,0.00,,,0.00,WUHU216HW,2013-02-24 22:20:00,
2013-02-24 15:22:00,42.5,8.7,29.33,NNW,338,10.5,16.8,25,0.00,,,0.00,WUHU216HW,2013-02-24 22:22:00,
2013-02-24 15:23:00,42.3,8.6,29.33,NNW,338,12.8,16.8,25,0.00,,,0.00,WUHU216HW,2013-02-24 22:23:00,
2013-02-24 15:25:00,42.3,7.7,29.33,NNW,338,8.5,16.8,24,0.00,,,0.00,WUHU216HW,2013-02-24 22:25:00,
2013-02-24 15:27:00,42.1,7.6,29.33,WNW,293,12.8,16.8,24,0.00,,,0.00,WUHU216HW,2013-02-24 22:27:00,
2013-02-24 15:28:00,41.9,7.4,29.33,West,270,5.6,16.8,24,0.00,,,0.00,WUHU216HW,2013-02-24 22:28:00,
2013-02-24 15:30:00,41.9,7.4,29.33,WNW,293,16.6,16.6,24,0.00,,,0.00,WUHU216HW,2013-02-24 22:30:00,
2013-02-24 15:32:00,41.8,7.2,29.33,NNW,338,15.4,16.6,24,0.00,,,0.00,WUHU216HW,2013-02-24 22:32:00,
2013-02-24 15:33:00,41.4,6.9,29.33,North,0,12.5,16.6,24,0.00,,,0.00,WUHU216HW,2013-02-24 22:33:00,
2013-02-24 15:35:00,41.4,6.9,29.33,NNW,338,4.9,16.6,24,0.00,,,0.00,WUHU216HW,2013-02-24 22:35:00,
2013-02-24 15:37:00,41.4,6.9,29.33,North,0,8.5,16.6,24,0.00,,,0.00,WUHU216HW,2013-02-24 22:37:00,
2013-02-24 15:38:00,41.4,6.9,29.33,North,0,9.4,16.6,24,0.00,,,0.00,WUHU216HW,2013-02-24 22:38:00,
2013-02-24 15:40:00,41.4,6.9,29.33,NNW,338,9.2,15.4,24,0.00,,,0.00,WUHU216HW,2013-02-24 22:40:00,
2013-02-24 15:41:00,41.4,6.9,29.33,NNW,338,9.2,15.4,24,0.00,,,0.00,WUHU216HW,2013-02-24 22:41:00,
2013-02-24 15:42:00,41.4,6.9,29.33,NNW,338,12.8,12.8,24,0.00,,,0.00,WUHU216HW,2013-02-24 22:42:00,
2013-02-24 15:43:00,41.4,6.9,29.34,North,0,10.5,12.8,24,0.00,,,0.00,WUHU216HW,2013-02-24 22:43:00,
2013-02-24 15:45:00,41.2,6.9,29.33,NW,315,9.8,12.8,24,0.00,,,0.00,WUHU216HW,2013-02-24 22:45:00,
2013-02-24 15:46:00,41.2,6.9,29.33,NW,315,9.8,12.8,24,0.00,,,0.00,WUHU216HW,2013-02-24 22:46:00,
2013-02-24 15:47:00,41.0,6.7,29.34,NW,315,13.4,13.4,24,0.00,,,0.00,WUHU216HW,2013-02-24 22:47:00,
2013-02-24 15:48:00,41.0,6.7,29.34,NNW,338,8.9,13.4,24,0.00,,,0.00,WUHU216HW,2013-02-24 22:48:00,
2013-02-24 15:51:00,41.0,6.7,29.34,NW,315,7.8,13.4,24,0.00,,,0.00,WUHU216HW,2013-02-24 22:51:00,
2013-02-24 15:52:00,41.0,6.7,29.34,NNW,338,5.1,13.4,24,0.00,,,0.00,WUHU216HW,2013-02-24 22:52:00,
2013-02-24 15:54:00,41.0,6.7,29.34,NW,315,9.8,13.4,24,0.00,,,0.00,WUHU216HW,2013-02-24 22:54:00,
2013-02-24 15:56:00,41.0,6.7,29.34,West,270,9.8,15.4,24,0.00,,,0.00,WUHU216HW,2013-02-24 22:56:00,
2013-02-24 15:57:00,41.0,6.7,29.33,NNW,338,11.4,15.4,24,0.00,,,0.00,WUHU216HW,2013-02-24 22:57:00,
2013-02-24 15:59:00,40.9,6.5,29.34,North,0,6.3,15.4,24,0.00,,,0.00,WUHU216HW,2013-02-24 22:59:00,
2013-02-24 16:01:00,40.9,6.5,29.34,NNW,338,9.2,15.4,24,0.00,,,0.00,WUHU216HW,2013-02-24 23:01:00,
2013-02-24 16:02:00,40.9,7.4,29.34,NNW,338,7.2,15.4,25,0.00,,,0.00,WUHU216HW,2013-02-24 23:02:00,
2013-02-24 16:04:00,40.9,7.4,29.34,NNW,338,8.1,15.4,25,0.00,,,0.00,WUHU216HW,2013-02-24 23:04:00,
2013-02-24 16:06:00,40.9,7.4,29.34,NW,315,12.3,12.3,25,0.00,,,0.00,WUHU216HW,2013-02-24 23:06:00,
2013-02-24 16:07:00,40.7,7.2,29.34,WSW,248,12.8,12.8,25,0.00,,,0.00,WUHU216HW,2013-02-24 23:07:00,
2013-02-24 16:09:00,40.7,7.2,29.34,NNE,23,9.8,12.8,25,0.00,,,0.00,WUHU216HW,2013-02-24 23:09:00,
2013-02-24 16:11:00,40.5,7.1,29.34,NNE,23,9.2,14.5,25,0.00,,,0.00,WUHU216HW,2013-02-24 23:11:00,
2013-02-24 16:12:00,40.5,7.1,29.34,NW,315,10.1,14.5,25,0.00,,,0.00,WUHU216HW,2013-02-24 23:12:00,
2013-02-24 16:14:00,40.5,7.1,29.34,NW,315,7.6,14.5,25,0.00,,,0.00,WUHU216HW,2013-02-24 23:14:00,
2013-02-24 16:16:00,40.5,7.1,29.34,NNW,338,10.3,14.5,25,0.00,,,0.00,WUHU216HW,2013-02-24 23:16:00,
2013-02-24 16:17:00,40.3,6.9,29.34,North,0,12.8,14.5,25,0.00,,,0.00,WUHU216HW,2013-02-24 23:17:00,
2013-02-24 16:19:00,40.3,7.8,29.34,NNE,23,9.8,14.5,26,0.00,,,0.00,WUHU216HW,2013-02-24 23:19:00,
2013-02-24 16:21:00,40.3,8.7,29.34,North,0,11.9,12.8,27,0.00,,,0.00,WUHU216HW,2013-02-24 23:21:00,
2013-02-24 16:22:00,40.3,8.7,29.34,North,0,11.9,12.8,27,0.00,,,0.00,WUHU216HW,2013-02-24 23:22:00,
2013-02-24 16:24:00,40.1,8.6,29.34,NW,315,6.9,13.6,27,0.00,,,0.00,WUHU216HW,2013-02-24 23:24:00,
2013-02-24 16:26:00,40.3,8.7,29.34,NNW,338,9.8,13.6,27,0.00,,,0.00,WUHU216HW,2013-02-24 23:26:00,
2013-02-24 16:27:00,40.3,8.7,29.34,NNW,338,9.8,13.6,27,0.00,,,0.00,WUHU216HW,2013-02-24 23:27:00,
2013-02-24 16:28:00,40.1,8.6,29.34,West,270,5.4,13.6,27,0.00,,,0.00,WUHU216HW,2013-02-24 23:28:00,
2013-02-24 16:29:00,40.3,8.7,29.34,North,0,12.1,13.6,27,0.00,,,0.00,WUHU216HW,2013-02-24 23:29:00,
2013-02-24 16:31:00,40.1,8.6,29.35,NNW,338,8.9,13.6,27,0.00,,,0.00,WUHU216HW,2013-02-24 23:31:00,
2013-02-24 16:32:00,40.1,8.6,29.35,NNW,338,8.9,13.6,27,0.00,,,0.00,WUHU216HW,2013-02-24 23:32:00,
2013-02-24 16:33:00,40.1,8.6,29.35,WNW,293,6.7,12.1,27,0.00,,,0.00,WUHU216HW,2013-02-24 23:33:00,
2013-02-24 16:34:00,40.1,8.6,29.35,NNW,338,7.2,12.1,27,0.00,,,0.00,WUHU216HW,2013-02-24 23:34:00,
2013-02-24 16:36:00,40.1,8.6,29.35,NW,315,8.7,12.1,27,0.00,,,0.00,WUHU216HW,2013-02-24 23:36:00,
2013-02-24 16:37:00,40.1,8.6,29.35,NW,315,8.7,12.1,27,0.00,,,0.00,WUHU216HW,2013-02-24 23:37:00,
2013-02-24 16:38:00,40.0,8.4,29.35,NNW,338,9.4,12.1,27,0.00,,,0.00,WUHU216HW,2013-02-24 23:38:00,
2013-02-24 16:39:00,40.1,8.6,29.35,NE,45,9.6,9.6,27,0.00,,,0.00,WUHU216HW,2013-02-24 23:39:00,
2013-02-24 16:42:00,40.0,8.4,29.35,NW,315,6.5,9.6,27,0.00,,,0.00,WUHU216HW,2013-02-24 23:42:00,
2013-02-24 16:43:00,40.0,8.4,29.35,NNW,338,8.5,9.6,27,0.00,,,0.00,WUHU216HW,2013-02-24 23:43:00,
2013-02-24 16:44:00,40.0,7.5,29.35,West,270,8.3,9.6,26,0.00,,,0.00,WUHU216HW,2013-02-24 23:44:00,
2013-02-24 16:47:00,40.0,6.6,29.35,NNW,338,7.4,9.6,25,0.00,,,0.00,WUHU216HW,2013-02-24 23:47:00,
2013-02-24 16:48:00,40.0,6.6,29.35,NW,315,4.9,9.6,25,0.00,,,0.00,WUHU216HW,2013-02-24 23:48:00,
2013-02-24 16:49:00,40.0,6.6,29.35,NNW,338,7.4,8.5,25,0.00,,,0.00,WUHU216HW,2013-02-24 23:49:00,
2013-02-24 16:52:00,40.0,6.6,29.35,West,270,4.9,10.1,25,0.00,,,0.00,WUHU216HW,2013-02-24 23:52:00,
2013-02-24 16:53:00,40.0,6.6,29.36,North,0,7.4,10.1,25,0.00,,,0.00,WUHU216HW,2013-02-24 23:53:00,
2013-02-24 16:54:00,40.0,6.6,29.36,NW,315,5.1,10.1,25,0.00,,,0.00,WUHU216HW,2013-02-24 23:54:00,
2013-02-24 16:57:00,39.8,6.4,29.36,WNW,293,12.1,12.1,25,0.00,,,0.00,WUHU216HW,2013-02-24 23:57:00,
2013-02-24 16:58:00,39.8,6.4,29.35,NNE,23,9.8,12.1,25,0.00,,,0.00,WUHU216HW,2013-02-24 23:58:00,
2013-02-24 16:59:00,39.6,6.3,29.36,South,180,9.8,12.1,25,0.00,,,0.00,WUHU216HW,2013-02-24 23:59:00,
2013-02-24 17:02:00,39.6,6.3,29.36,ENE,68,12.1,12.1,25,0.00,,,0.00,WUHU216HW,2013-02-25 00:02:00,
2013-02-24 17:03:00,39.6,6.3,29.36,NNW,338,9.6,12.1,25,0.00,,,0.00,WUHU216HW,2013-02-25 00:03:00,
2013-02-24 17:04:00,39.4,6.1,29.36,NNW,338,9.8,12.1,25,0.00,,,0.00,WUHU216HW,2013-02-25 00:04:00,
2013-02-24 17:08:00,39.2,5.9,29.36,NNW,338,7.6,16.3,25,0.00,,,0.00,WUHU216HW,2013-02-25 00:08:00,
2013-02-24 17:09:00,39.2,5.9,29.36,North,0,6.9,16.3,25,0.00,,,0.00,WUHU216HW,2013-02-25 00:09:00,
2013-02-24 17:13:00,39.2,6.8,29.36,West,270,5.1,16.3,26,0.00,,,0.00,WUHU216HW,2013-02-25 00:13:00,
2013-02-24 17:14:00,39.2,6.8,29.36,West,270,5.1,16.3,26,0.00,,,0.00,WUHU216HW,2013-02-25 00:14:00,
2013-02-24 17:18:00,39.2,6.8,29.36,ENE,68,8.9,10.1,26,0.00,,,0.00,WUHU216HW,2013-02-25 00:18:00,
2013-02-24 17:19:00,39.2,6.8,29.36,ENE,68,8.9,10.1,26,0.00,,,0.00,WUHU216HW,2013-02-25 00:19:00,
2013-02-24 17:20:00,39.2,6.8,29.36,WSW,248,9.2,10.1,26,0.00,,,0.00,WUHU216HW,2013-02-25 00:20:00,
2013-02-24 17:23:00,39.1,6.7,29.36,NNW,338,13.6,13.6,26,0.00,,,0.00,WUHU216HW,2013-02-25 00:23:00,
2013-02-24 17:24:00,39.1,6.7,29.36,NNW,338,16.6,16.6,26,0.01,,,0.00,WUHU216HW,2013-02-25 00:24:00,
2013-02-24 17:25:00,39.1,7.6,29.36,NW,315,11.0,16.6,27,0.01,,,0.01,WUHU216HW,2013-02-25 00:25:00,
2013-02-24 17:28:00,38.9,7.5,29.36,North,0,8.1,16.6,27,0.01,,,0.01,WUHU216HW,2013-02-25 00:28:00,
2013-02-24 17:29:00,38.9,7.5,29.36,WNW,293,10.5,16.6,27,0.01,,,0.01,WUHU216HW,2013-02-25 00:29:00,
2013-02-24 17:30:00,38.9,7.5,29.37,NE,45,6.3,16.6,27,0.01,,,0.01,WUHU216HW,2013-02-25 00:30:00,
2013-02-24 17:33:00,38.7,7.3,29.37,North,0,7.4,16.6,27,0.01,,,0.01,WUHU216HW,2013-02-25 00:33:00,
2013-02-24 17:34:00,38.7,7.3,29.37,North,0,7.4,16.6,27,0.01,,,0.01,WUHU216HW,2013-02-25 00:34:00,
2013-02-24 17:35:00,38.7,7.3,29.37,East,90,9.4,11.9,27,0.01,,,0.01,WUHU216HW,2013-02-25 00:35:00,
2013-02-24 17:39:00,38.7,7.3,29.37,West,270,6.5,10.5,27,0.01,,,0.01,WUHU216HW,2013-02-25 00:39:00,
2013-02-24 17:40:00,38.5,7.1,29.37,NNW,338,7.2,10.3,27,0.01,,,0.01,WUHU216HW,2013-02-25 00:40:00,
2013-02-24 17:44:00,38.5,7.1,29.37,NNW,338,9.4,9.4,27,0.01,,,0.01,WUHU216HW,2013-02-25 00:44:00,
2013-02-24 17:45:00,38.5,7.1,29.37,NW,315,8.5,9.4,27,0.01,,,0.01,WUHU216HW,2013-02-25 00:45:00,
2013-02-24 17:46:00,38.5,7.1,29.37,NNW,338,12.1,12.1,27,0.01,,,0.01,WUHU216HW,2013-02-25 00:46:00,
2013-02-24 17:49:00,38.5,7.1,29.37,North,0,7.4,12.1,27,0.01,,,0.01,WUHU216HW,2013-02-25 00:49:00,
2013-02-24 17:50:00,38.5,7.1,29.38,NNW,338,4.7,12.1,27,0.01,,,0.01,WUHU216HW,2013-02-25 00:50:00,
2013-02-24 17:51:00,38.5,7.1,29.37,NNW,338,12.3,12.3,27,0.01,,,0.01,WUHU216HW,2013-02-25 00:51:00,
2013-02-24 17:54:00,38.5,7.1,29.38,North,0,10.5,12.3,27,0.01,,,0.01,WUHU216HW,2013-02-25 00:54:00,
2013-02-24 17:55:00,38.5,7.1,29.38,WSW,248,5.8,12.3,27,0.01,,,0.01,WUHU216HW,2013-02-25 00:55:00,
2013-02-24 17:56:00,38.5,6.2,29.38,NNE,23,6.3,12.3,26,0.01,,,0.01,WUHU216HW,2013-02-25 00:56:00,
2013-02-24 17:59:00,38.3,6.0,29.38,West,270,9.6,12.3,26,0.01,,,0.01,WUHU216HW,2013-02-25 00:59:00,
2013-02-24 18:00:00,38.3,6.0,29.38,NE,45,8.1,12.3,26,0.01,,,0.01,WUHU216HW,2013-02-25 01:00:00,
2013-02-24 18:01:00,38.3,6.0,29.38,North,0,4.0,10.5,26,0.01,,,0.01,WUHU216HW,2013-02-25 01:01:00,
2013-02-24 18:04:00,38.3,6.0,29.38,NW,315,8.7,11.2,26,0.01,,,0.01,WUHU216HW,2013-02-25 01:04:00,
2013-02-24 18:05:00,38.3,6.0,29.38,WNW,293,12.5,12.5,26,0.01,,,0.01,WUHU216HW,2013-02-25 01:05:00,
2013-02-24 18:06:00,38.3,6.0,29.38,SW,225,9.8,12.5,26,0.01,,,0.01,WUHU216HW,2013-02-25 01:06:00,
2013-02-24 18:10:00,38.2,6.0,29.39,NNW,338,6.3,12.5,26,0.01,,,0.01,WUHU216HW,2013-02-25 01:10:00,
2013-02-24 18:11:00,38.2,6.0,29.39,NNW,338,7.6,12.5,26,0.01,,,0.01,WUHU216HW,2013-02-25 01:11:00,
2013-02-24 18:15:00,38.0,5.8,29.39,North,0,9.8,10.7,26,0.01,,,0.01,WUHU216HW,2013-02-25 01:15:00,
2013-02-24 18:16:00,38.0,5.8,29.39,WSW,248,4.5,10.7,26,0.01,,,0.01,WUHU216HW,2013-02-25 01:16:00,
2013-02-24 18:20:00,38.0,5.8,29.39,NW,315,2.7,10.7,26,0.00,,,0.01,WUHU216HW,2013-02-25 01:20:00,
2013-02-24 18:22:00,38.0,5.8,29.39,WNW,293,7.4,10.7,26,0.00,,,0.01,WUHU216HW,2013-02-25 01:22:00,
2013-02-24 18:25:00,37.8,5.6,29.39,NW,315,7.4,9.2,26,0.00,,,0.01,WUHU216HW,2013-02-25 01:25:00,
2013-02-24 18:26:00,37.8,5.6,29.39,NW,315,7.4,9.2,26,0.00,,,0.01,WUHU216HW,2013-02-25 01:26:00,
2013-02-24 18:27:00,38.0,5.8,29.39,NW,315,8.5,8.5,26,0.00,,,0.01,WUHU216HW,2013-02-25 01:27:00,
2013-02-24 18:30:00,37.8,5.6,29.39,North,0,7.6,8.5,26,0.00,,,0.01,WUHU216HW,2013-02-25 01:30:00,
2013-02-24 18:31:00,37.8,5.6,29.39,North,0,7.6,8.5,26,0.00,,,0.01,WUHU216HW,2013-02-25 01:31:00,
2013-02-24 18:32:00,37.8,5.6,29.39,NW,315,8.1,8.5,26,0.00,,,0.01,WUHU216HW,2013-02-25 01:32:00,
2013-02-24 18:35:00,37.8,5.6,29.39,NNE,23,9.2,9.2,26,0.00,,,0.01,WUHU216HW,2013-02-25 01:35:00,
2013-02-24 18:36:00,37.8,5.6,29.39,NNE,23,9.2,9.2,26,0.00,,,0.01,WUHU216HW,2013-02-25 01:36:00,
2013-02-24 18:37:00,37.8,5.6,29.39,NW,315,4.7,9.2,26,0.00,,,0.01,WUHU216HW,2013-02-25 01:37:00,
2013-02-24 18:40:00,37.8,6.5,29.39,North,0,7.8,9.2,27,0.00,,,0.01,WUHU216HW,2013-02-25 01:40:00,
2013-02-24 18:41:00,37.8,6.5,29.39,North,0,7.8,9.2,27,0.00,,,0.01,WUHU216HW,2013-02-25 01:41:00,
2013-02-24 18:42:00,37.8,5.6,29.39,NNW,338,8.3,13.0,26,0.00,,,0.01,WUHU216HW,2013-02-25 01:42:00,
2013-02-24 18:45:00,37.8,5.6,29.40,NNW,338,10.1,13.0,26,0.00,,,0.01,WUHU216HW,2013-02-25 01:45:00,
2013-02-24 18:46:00,37.8,5.6,29.40,NNW,338,10.1,13.0,26,0.00,,,0.01,WUHU216HW,2013-02-25 01:46:00,
2013-02-24 18:48:00,37.6,5.5,29.40,NNE,23,10.3,13.0,26,0.00,,,0.01,WUHU216HW,2013-02-25 01:48:00,
2013-02-24 18:50:00,37.6,5.5,29.40,West,270,9.8,13.0,26,0.00,,,0.01,WUHU216HW,2013-02-25 01:50:00,
2013-02-24 18:51:00,37.6,5.5,29.40,North,0,14.5,14.5,26,0.00,,,0.01,WUHU216HW,2013-02-25 01:51:00,
2013-02-24 18:52:00,37.6,5.5,29.40,North,0,14.5,14.5,26,0.00,,,0.01,WUHU216HW,2013-02-25 01:52:00,
2013-02-24 18:53:00,37.6,5.5,29.40,SW,225,10.7,14.5,26,0.00,,,0.01,WUHU216HW,2013-02-25 01:53:00,
2013-02-24 18:55:00,37.6,5.5,29.40,North,0,11.6,14.5,26,0.00,,,0.01,WUHU216HW,2013-02-25 01:55:00,
2013-02-24 18:56:00,37.4,5.3,29.40,North,0,7.6,14.5,26,0.00,,,0.01,WUHU216HW,2013-02-25 01:56:00,
2013-02-24 18:57:00,37.4,5.3,29.40,North,0,7.6,14.5,26,0.00,,,0.01,WUHU216HW,2013-02-25 01:57:00,
2013-02-24 18:58:00,37.4,5.3,29.40,NW,315,6.7,14.5,26,0.00,,,0.01,WUHU216HW,2013-02-25 01:58:00,
2013-02-24 19:01:00,37.4,5.3,29.40,NW,315,5.4,14.5,26,0.00,,,0.01,WUHU216HW,2013-02-25 02:01:00,
2013-02-24 19:02:00,37.4,5.3,29.40,NNW,338,12.3,12.3,26,0.00,,,0.01,WUHU216HW,2013-02-25 02:02:00,
2013-02-24 19:03:00,37.4,5.3,29.40,North,0,13.9,13.9,26,0.00,,,0.01,WUHU216HW,2013-02-25 02:03:00,
2013-02-24 19:06:00,37.4,5.3,29.41,NNW,338,7.8,13.9,26,0.00,,,0.01,WUHU216HW,2013-02-25 02:06:00,
2013-02-24 19:07:00,37.4,5.3,29.41,NW,315,9.4,13.9,26,0.00,,,0.01,WUHU216HW,2013-02-25 02:07:00,
2013-02-24 19:08:00,37.4,5.3,29.41,NNW,338,6.3,13.9,26,0.00,,,0.01,WUHU216HW,2013-02-25 02:08:00,
2013-02-24 19:11:00,37.4,5.3,29.41,North,0,6.5,13.9,26,0.00,,,0.01,WUHU216HW,2013-02-25 02:11:00,
2013-02-24 19:12:00,37.4,5.3,29.41,West,270,10.3,13.9,26,0.00,,,0.01,WUHU216HW,2013-02-25 02:12:00,
2013-02-24 19:13:00,37.4,5.3,29.41,NW,315,6.9,13.9,26,0.00,,,0.01,WUHU216HW,2013-02-25 02:13:00,
2013-02-24 19:16:00,37.4,5.3,29.41,North,0,8.7,12.5,26,0.00,,,0.01,WUHU216HW,2013-02-25 02:16:00,
2013-02-24 19:17:00,37.4,5.3,29.41,NNW,338,13.4,13.4,26,0.00,,,0.01,WUHU216HW,2013-02-25 02:17:00,
2013-02-24 19:18:00,37.4,5.3,29.41,North,0,8.1,13.4,26,0.00,,,0.01,WUHU216HW,2013-02-25 02:18:00,
2013-02-24 19:21:00,37.3,5.1,29.41,North,0,13.6,17.2,26,0.00,,,0.01,WUHU216HW,2013-02-25 02:21:00,
2013-02-24 19:22:00,37.3,5.1,29.42,North,0,11.9,17.2,26,0.00,,,0.01,WUHU216HW,2013-02-25 02:22:00,
2013-02-24 19:23:00,37.3,6.0,29.42,NNW,338,7.2,17.2,27,0.00,,,0.01,WUHU216HW,2013-02-25 02:23:00,
2013-02-24 19:26:00,37.3,6.0,29.43,NW,315,15.9,17.2,27,0.00,,,0.01,WUHU216HW,2013-02-25 02:26:00,
2013-02-24 19:27:00,37.3,6.9,29.43,NNW,338,11.4,17.2,28,0.00,,,0.01,WUHU216HW,2013-02-25 02:27:00,
2013-02-24 19:28:00,37.3,6.9,29.43,NNW,338,10.5,17.2,28,0.00,,,0.01,WUHU216HW,2013-02-25 02:28:00,
2013-02-24 19:31:00,37.1,9.2,29.43,North,0,11.9,15.9,31,0.00,,,0.01,WUHU216HW,2013-02-25 02:31:00,
2013-02-24 19:32:00,37.1,8.5,29.43,North,0,9.2,15.9,30,0.00,,,0.01,WUHU216HW,2013-02-25 02:32:00,
2013-02-24 19:34:00,37.1,8.5,29.43,NNW,338,8.1,15.9,30,0.00,,,0.01,WUHU216HW,2013-02-25 02:34:00,
2013-02-24 19:36:00,36.9,9.0,29.44,North,0,13.2,13.6,31,0.00,,,0.01,WUHU216HW,2013-02-25 02:36:00,
2013-02-24 19:37:00,36.7,9.5,29.44,NNW,338,9.6,13.6,32,0.00,,,0.01,WUHU216HW,2013-02-25 02:37:00,
2013-02-24 19:38:00,36.7,9.5,29.44,NNW,338,9.6,13.6,32,0.00,,,0.01,WUHU216HW,2013-02-25 02:38:00,
2013-02-24 19:39:00,36.7,10.1,29.44,North,0,10.5,13.6,33,0.00,,,0.01,WUHU216HW,2013-02-25 02:39:00,
2013-02-24 19:41:00,36.5,11.9,29.44,NNW,338,15.0,15.0,36,0.00,,,0.01,WUHU216HW,2013-02-25 02:41:00,
2013-02-24 19:43:00,36.4,11.7,29.44,North,0,14.1,15.0,36,0.00,,,0.01,WUHU216HW,2013-02-25 02:43:00,
2013-02-24 19:44:00,36.4,11.7,29.44,NW,315,13.6,15.0,36,0.00,,,0.01,WUHU216HW,2013-02-25 02:44:00,
2013-02-24 19:47:00,36.2,12.3,29.44,NNW,338,8.1,15.0,37,0.00,,,0.01,WUHU216HW,2013-02-25 02:47:00,
2013-02-24 19:48:00,36.2,12.9,29.44,North,0,10.5,15.0,38,0.00,,,0.01,WUHU216HW,2013-02-25 02:48:00,
2013-02-24 19:49:00,36.2,12.9,29.44,North,0,10.5,15.0,38,0.00,,,0.01,WUHU216HW,2013-02-25 02:49:00,
2013-02-24 19:52:00,36.0,12.7,29.44,North,0,10.5,14.1,38,0.00,,,0.01,WUHU216HW,2013-02-25 02:52:00,
2013-02-24 19:53:00,36.0,13.3,29.44,North,0,12.8,12.8,39,0.00,,,0.01,WUHU216HW,2013-02-25 02:53:00,
2013-02-24 19:54:00,36.0,13.3,29.44,North,0,12.8,12.8,39,0.00,,,0.01,WUHU216HW,2013-02-25 02:54:00,
2013-02-24 19:57:00,35.8,13.2,29.44,NW,315,10.5,12.8,39,0.00,,,0.01,WUHU216HW,2013-02-25 02:57:00,
2013-02-24 19:58:00,35.8,13.2,29.44,NNW,338,11.4,12.8,39,0.00,,,0.01,WUHU216HW,2013-02-25 02:58:00,
2013-02-24 19:59:00,35.8,13.9,29.44,North,0,6.5,12.8,40,0.00,,,0.01,WUHU216HW,2013-02-25 02:59:00,
2013-02-24 20:02:00,35.6,14.2,29.45,NNW,338,10.5,12.8,41,0.00,,,0.01,WUHU216HW,2013-02-25 03:02:00,
2013-02-24 20:03:00,35.6,14.2,29.45,NNW,338,11.4,11.4,41,0.00,,,0.01,WUHU216HW,2013-02-25 03:03:00,
2013-02-24 20:05:00,35.6,13.7,29.45,NNW,338,9.2,11.4,40,0.00,,,0.01,WUHU216HW,2013-02-25 03:05:00,
2013-02-24 20:07:00,35.5,14.6,29.45,NNE,23,13.4,13.4,42,0.00,,,0.01,WUHU216HW,2013-02-25 03:07:00,
2013-02-24 20:08:00,35.5,14.1,29.45,NNW,338,8.5,13.4,41,0.00,,,0.01,WUHU216HW,2013-02-25 03:08:00,
2013-02-24 20:10:00,35.5,14.6,29.45,NNW,338,13.4,13.4,42,0.00,,,0.01,WUHU216HW,2013-02-25 03:10:00,
2013-02-24 20:12:00,34.9,16.7,29.45,North,0,14.5,15.7,47,0.00,,,0.01,WUHU216HW,2013-02-25 03:12:00,
2013-02-24 20:13:00,34.7,17.0,29.45,NNW,338,12.1,15.7,48,0.00,,,0.01,WUHU216HW,2013-02-25 03:13:00,
2013-02-24 20:14:00,34.7,17.0,29.45,NNW,338,12.1,15.7,48,0.00,,,0.01,WUHU216HW,2013-02-25 03:14:00,
2013-02-24 20:15:00,34.6,16.8,29.45,NNW,338,10.5,15.7,48,0.00,,,0.01,WUHU216HW,2013-02-25 03:15:00,
2013-02-24 20:17:00,34.2,16.5,29.45,NNW,338,8.7,15.7,48,0.00,,,0.01,WUHU216HW,2013-02-25 03:17:00,
2013-02-24 20:19:00,34.2,16.5,29.45,NNW,338,8.1,15.7,48,0.00,,,0.01,WUHU216HW,2013-02-25 03:19:00,
2013-02-24 20:20:00,34.2,16.5,29.45,WNW,293,9.8,15.7,48,0.00,,,0.01,WUHU216HW,2013-02-25 03:20:00,
2013-02-24 20:22:00,34.2,16.5,29.45,NNE,23,5.4,12.3,48,0.00,,,0.01,WUHU216HW,2013-02-25 03:22:00,
2013-02-24 20:24:00,34.2,15.9,29.45,NW,315,6.7,12.3,47,0.00,,,0.01,WUHU216HW,2013-02-25 03:24:00,
2013-02-24 20:25:00,34.2,15.9,29.45,NNW,338,4.0,12.3,47,0.00,,,0.01,WUHU216HW,2013-02-25 03:25:00,
2013-02-24 20:28:00,34.2,15.9,29.45,NNE,23,8.5,12.3,47,0.00,,,0.01,WUHU216HW,2013-02-25 03:28:00,
2013-02-24 20:29:00,34.2,15.9,29.45,NNW,338,7.6,12.3,47,0.00,,,0.01,WUHU216HW,2013-02-25 03:29:00,
2013-02-24 20:30:00,34.2,15.4,29.45,NNE,23,10.3,12.3,46,0.00,,,0.01,WUHU216HW,2013-02-25 03:30:00,
2013-02-24 20:33:00,34.2,15.0,29.45,NNW,338,7.6,12.8,45,0.00,,,0.01,WUHU216HW,2013-02-25 03:33:00,
2013-02-24 20:34:00,34.2,15.0,29.45,NW,315,9.2,12.8,45,0.00,,,0.01,WUHU216HW,2013-02-25 03:34:00,
2013-02-24 20:35:00,34.4,14.6,29.45,North,0,12.1,12.8,44,0.00,,,0.01,WUHU216HW,2013-02-25 03:35:00,
2013-02-24 20:38:00,34.4,14.6,29.45,NNW,338,13.2,13.2,44,0.00,,,0.01,WUHU216HW,2013-02-25 03:38:00,
2013-02-24 20:39:00,34.4,14.0,29.45,NNW,338,10.3,13.2,43,0.00,,,0.01,WUHU216HW,2013-02-25 03:39:00,
2013-02-24 20:40:00,34.6,14.2,29.46,NNW,338,9.2,13.2,43,0.00,,,0.01,WUHU216HW,2013-02-25 03:40:00,
2013-02-24 20:43:00,34.6,13.8,29.46,NW,315,9.8,13.2,42,0.00,,,0.01,WUHU216HW,2013-02-25 03:43:00,
2013-02-24 20:44:00,34.6,13.8,29.46,NNE,23,14.3,14.3,42,0.00,,,0.01,WUHU216HW,2013-02-25 03:44:00,
2013-02-24 20:45:00,34.6,14.2,29.46,NW,315,11.6,14.3,43,0.00,,,0.01,WUHU216HW,2013-02-25 03:45:00,
2013-02-24 20:48:00,34.6,14.2,29.46,NNW,338,7.6,14.3,43,0.00,,,0.01,WUHU216HW,2013-02-25 03:48:00,
2013-02-24 20:49:00,34.6,14.2,29.46,NNW,338,7.6,14.3,43,0.00,,,0.01,WUHU216HW,2013-02-25 03:49:00,
2013-02-24 20:51:00,34.6,13.8,29.46,NW,315,4.5,14.3,42,0.00,,,0.01,WUHU216HW,2013-02-25 03:51:00,
2013-02-24 20:53:00,34.7,13.4,29.46,WSW,248,6.5,12.3,41,0.00,,,0.01,WUHU216HW,2013-02-25 03:53:00,
2013-02-24 20:54:00,34.7,13.4,29.46,NW,315,5.6,11.6,41,0.00,,,0.01,WUHU216HW,2013-02-25 03:54:00,
2013-02-24 20:56:00,34.7,13.4,29.46,North,0,4.7,7.6,41,0.00,,,0.01,WUHU216HW,2013-02-25 03:56:00,
2013-02-24 20:58:00,34.9,13.6,29.46,North,0,6.7,6.7,41,0.00,,,0.01,WUHU216HW,2013-02-25 03:58:00,
2013-02-24 20:59:00,34.9,13.6,29.46,NNW,338,2.5,6.7,41,0.00,,,0.01,WUHU216HW,2013-02-25 03:59:00,
2013-02-24 21:00:00,34.9,13.6,29.46,NNW,338,2.5,6.7,41,0.00,,,0.01,WUHU216HW,2013-02-25 04:00:00,
2013-02-24 21:02:00,34.9,13.6,29.46,North,0,4.3,6.7,41,0.00,,,0.01,WUHU216HW,2013-02-25 04:02:00,
2013-02-24 21:03:00,34.9,13.1,29.46,NNW,338,4.0,6.7,40,0.00,,,0.01,WUHU216HW,2013-02-25 04:03:00,
2013-02-24 21:04:00,34.9,13.1,29.46,North,0,6.9,6.9,40,0.00,,,0.01,WUHU216HW,2013-02-25 04:04:00,
2013-02-24 21:05:00,35.1,13.2,29.46,NNW,338,2.7,6.9,40,0.00,,,0.01,WUHU216HW,2013-02-25 04:05:00,
2013-02-24 21:07:00,35.1,12.5,29.46,NNE,23,4.3,6.9,39,0.00,,,0.01,WUHU216HW,2013-02-25 04:07:00,
2013-02-24 21:09:00,35.3,12.7,29.47,North,0,4.7,6.9,39,0.00,,,0.01,WUHU216HW,2013-02-25 04:09:00,
2013-02-24 21:10:00,35.3,12.7,29.47,NNE,23,6.7,6.9,39,0.00,,,0.01,WUHU216HW,2013-02-25 04:10:00,
2013-02-24 21:12:00,35.3,12.1,29.47,North,0,6.0,7.4,38,0.00,,,0.01,WUHU216HW,2013-02-25 04:12:00,
2013-02-24 21:14:00,35.5,12.3,29.47,NNW,338,6.0,7.4,38,0.00,,,0.01,WUHU216HW,2013-02-25 04:14:00,
2013-02-24 21:15:00,35.5,12.3,29.47,NNW,338,6.0,7.4,38,0.00,,,0.01,WUHU216HW,2013-02-25 04:15:00,
2013-02-24 21:17:00,35.6,11.7,29.47,North,0,8.9,8.9,37,0.00,,,0.01,WUHU216HW,2013-02-25 04:17:00,
2013-02-24 21:18:00,35.6,11.7,29.47,North,0,8.9,8.9,37,0.00,,,0.01,WUHU216HW,2013-02-25 04:18:00,
2013-02-24 21:19:00,35.6,11.1,29.47,NNW,338,9.2,17.0,36,0.00,,,0.01,WUHU216HW,2013-02-25 04:19:00,
2013-02-24 21:20:00,35.6,11.1,29.47,NNW,338,9.2,17.0,36,0.00,,,0.01,WUHU216HW,2013-02-25 04:20:00,
2013-02-24 21:22:00,35.8,11.9,29.47,North,0,7.8,17.0,37,0.00,,,0.01,WUHU216HW,2013-02-25 04:22:00,
2013-02-24 21:23:00,35.8,11.9,29.47,North,0,7.8,17.0,37,0.00,,,0.01,WUHU216HW,2013-02-25 04:23:00,
2013-02-24 21:24:00,35.8,11.9,29.47,North,0,7.2,17.0,37,0.00,,,0.01,WUHU216HW,2013-02-25 04:24:00,
2013-02-24 21:25:00,35.8,11.9,29.47,North,0,7.2,17.0,37,0.00,,,0.01,WUHU216HW,2013-02-25 04:25:00,
2013-02-24 21:27:00,35.8,12.5,29.47,NNE,23,10.5,17.0,38,0.00,,,0.01,WUHU216HW,2013-02-25 04:27:00,
2013-02-24 21:28:00,35.8,12.5,29.47,NNE,23,10.5,13.4,38,0.00,,,0.01,WUHU216HW,2013-02-25 04:28:00,
2013-02-24 21:29:00,35.6,14.2,29.48,NW,315,14.8,14.8,41,0.00,,,0.01,WUHU216HW,2013-02-25 04:29:00,
2013-02-24 21:30:00,35.6,14.8,29.48,NW,315,10.5,14.8,42,0.00,,,0.01,WUHU216HW,2013-02-25 04:30:00,
2013-02-24 21:32:00,35.5,15.1,29.48,North,0,6.9,14.8,43,0.00,,,0.01,WUHU216HW,2013-02-25 04:32:00,
2013-02-24 21:33:00,35.3,15.4,29.48,NNE,23,9.6,14.8,44,0.00,,,0.01,WUHU216HW,2013-02-25 04:33:00,
2013-02-24 21:34:00,35.3,15.4,29.48,North,0,17.2,17.2,44,0.00,,,0.01,WUHU216HW,2013-02-25 04:34:00,
2013-02-24 21:35:00,35.1,16.3,29.49,North,0,11.0,17.2,46,0.00,,,0.01,WUHU216HW,2013-02-25 04:35:00,
2013-02-24 21:37:00,34.9,17.2,29.49,North,0,5.8,17.2,48,0.00,,,0.01,WUHU216HW,2013-02-25 04:37:00,
2013-02-24 21:39:00,34.7,17.5,29.49,NNW,338,9.2,17.2,49,0.00,,,0.01,WUHU216HW,2013-02-25 04:39:00,
2013-02-24 21:40:00,34.6,18.3,29.49,North,0,12.1,17.2,51,0.00,,,0.01,WUHU216HW,2013-02-25 04:40:00,
2013-02-24 21:42:00,34.2,17.9,29.49,North,0,7.8,17.2,51,0.00,,,0.01,WUHU216HW,2013-02-25 04:42:00,
2013-02-24 21:45:00,34.2,17.9,29.49,NE,45,9.6,12.1,51,0.00,,,0.01,WUHU216HW,2013-02-25 04:45:00,
2013-02-24 21:46:00,34.2,17.9,29.49,NNE,23,3.8,12.1,51,0.00,,,0.01,WUHU216HW,2013-02-25 04:46:00,
2013-02-24 21:48:00,34.2,17.9,29.49,North,0,5.8,12.1,51,0.00,,,0.01,WUHU216HW,2013-02-25 04:48:00,
2013-02-24 21:50:00,34.2,17.9,29.49,North,0,7.2,12.1,51,0.00,,,0.01,WUHU216HW,2013-02-25 04:50:00,
2013-02-24 21:51:00,34.2,17.9,29.49,NNW,338,4.5,11.6,51,0.00,,,0.01,WUHU216HW,2013-02-25 04:51:00,
2013-02-24 21:53:00,34.2,17.9,29.49,North,0,7.8,11.6,51,0.00,,,0.01,WUHU216HW,2013-02-25 04:53:00,
2013-02-24 21:55:00,34.2,18.4,29.49,North,0,6.0,13.2,52,0.00,,,0.01,WUHU216HW,2013-02-25 04:55:00,
2013-02-24 21:56:00,34.2,18.7,29.49,NW,315,11.9,13.2,53,0.00,,,0.01,WUHU216HW,2013-02-25 04:56:00,
2013-02-24 21:58:00,34.2,19.2,29.49,NNW,338,5.4,13.2,54,0.00,,,0.01,WUHU216HW,2013-02-25 04:58:00,
2013-02-24 22:00:00,34.0,19.9,29.49,North,0,11.6,13.2,56,0.00,,,0.01,WUHU216HW,2013-02-25 05:00:00,
2013-02-24 22:05:00,33.7,19.5,29.50,North,0,6.9,11.9,56,0.00,,,0.01,WUHU216HW,2013-02-25 05:05:00,
2013-02-24 22:10:00,33.7,19.5,29.50,NNE,23,3.4,9.2,56,0.00,,,0.01,WUHU216HW,2013-02-25 05:10:00,
2013-02-24 22:15:00,33.7,20.4,29.50,NNE,23,8.3,10.5,58,0.00,,,0.01,WUHU216HW,2013-02-25 05:15:00,
2013-02-24 22:20:00,33.7,20.4,29.50,North,0,6.9,10.5,58,0.00,,,0.01,WUHU216HW,2013-02-25 05:20:00,
2013-02-24 22:21:00,33.7,20.0,29.50,North,0,4.0,10.5,57,0.00,,,0.01,WUHU216HW,2013-02-25 05:21:00,
2013-02-24 22:25:00,33.7,22.0,29.50,NNE,23,10.5,15.2,62,0.00,,,0.01,WUHU216HW,2013-02-25 05:25:00,
2013-02-24 22:26:00,33.7,22.3,29.50,NNE,23,11.2,15.2,63,0.00,,,0.01,WUHU216HW,2013-02-25 05:26:00,
2013-02-24 22:30:00,33.3,22.1,29.50,NNE,23,10.5,15.2,63,0.00,,,0.01,WUHU216HW,2013-02-25 05:30:00,
2013-02-24 22:31:00,33.3,21.7,29.50,NNE,23,6.3,15.2,62,0.00,,,0.01,WUHU216HW,2013-02-25 05:31:00,
2013-02-24 22:35:00,33.1,21.9,29.50,North,0,3.8,15.2,63,0.00,,,0.01,WUHU216HW,2013-02-25 05:35:00,
2013-02-24 22:36:00,33.1,21.9,29.50,North,0,3.8,15.2,63,0.00,,,0.01,WUHU216HW,2013-02-25 05:36:00,
2013-02-24 22:37:00,33.1,21.9,29.50,NE,45,7.2,10.7,63,0.00,,,0.01,WUHU216HW,2013-02-25 05:37:00,
2013-02-24 22:41:00,33.1,22.2,29.50,NE,45,5.8,10.7,64,0.00,,,0.01,WUHU216HW,2013-02-25 05:41:00,
2013-02-24 22:42:00,32.9,21.7,29.50,East,90,3.4,10.5,63,0.00,,,0.01,WUHU216HW,2013-02-25 05:42:00,
2013-02-24 22:46:00,32.9,21.7,29.50,ENE,68,1.1,7.2,63,0.00,,,0.01,WUHU216HW,2013-02-25 05:46:00,
2013-02-24 22:47:00,32.9,22.1,29.50,NE,45,0.9,5.8,64,0.00,,,0.01,WUHU216HW,2013-02-25 05:47:00,
2013-02-24 22:51:00,32.9,21.7,29.51,NNE,23,2.2,3.4,63,0.00,,,0.01,WUHU216HW,2013-02-25 05:51:00,
2013-02-24 22:52:00,32.9,22.4,29.51,ENE,68,2.7,3.1,65,0.00,,,0.01,WUHU216HW,2013-02-25 05:52:00,
2013-02-24 22:56:00,32.8,21.9,29.51,NE,45,2.7,4.7,64,0.00,,,0.01,WUHU216HW,2013-02-25 05:56:00,
2013-02-24 22:57:00,32.8,22.2,29.51,NE,45,3.6,4.7,65,0.00,,,0.01,WUHU216HW,2013-02-25 05:57:00,
2013-02-24 22:58:00,32.8,22.2,29.51,ENE,68,4.0,4.7,65,0.00,,,0.01,WUHU216HW,2013-02-25 05:58:00,
2013-02-24 23:01:00,32.8,22.2,29.51,NE,45,4.3,5.4,65,0.00,,,0.01,WUHU216HW,2013-02-25 06:01:00,
2013-02-24 23:02:00,32.8,23.0,29.51,NNE,23,4.0,5.4,67,0.00,,,0.01,WUHU216HW,2013-02-25 06:02:00,
2013-02-24 23:03:00,32.8,23.7,29.51,NNE,23,6.5,6.5,69,0.00,,,0.01,WUHU216HW,2013-02-25 06:03:00,
2013-02-24 23:06:00,32.6,23.5,29.51,North,0,3.1,6.5,69,0.00,,,0.01,WUHU216HW,2013-02-25 06:06:00,
2013-02-24 23:07:00,32.4,23.4,29.51,NNE,23,2.7,6.5,69,0.00,,,0.01,WUHU216HW,2013-02-25 06:07:00,
2013-02-24 23:09:00,32.4,22.7,29.51,NE,45,3.6,6.5,67,0.00,,,0.01,WUHU216HW,2013-02-25 06:09:00,
2013-02-24 23:11:00,32.4,22.7,29.51,NE,45,2.5,6.5,67,0.00,,,0.01,WUHU216HW,2013-02-25 06:11:00,
2013-02-24 23:12:00,32.4,22.7,29.51,NNE,23,2.5,6.5,67,0.00,,,0.01,WUHU216HW,2013-02-25 06:12:00,
2013-02-24 23:13:00,32.4,22.7,29.51,NE,45,3.1,4.9,67,0.00,,,0.01,WUHU216HW,2013-02-25 06:13:00,
2013-02-24 23:14:00,32.4,22.3,29.51,NNE,23,3.1,3.8,66,0.00,,,0.01,WUHU216HW,2013-02-25 06:14:00,
2013-02-24 23:16:00,32.4,22.3,29.51,North,0,2.2,3.6,66,0.00,,,0.01,WUHU216HW,2013-02-25 06:16:00,
2013-02-24 23:17:00,32.6,22.8,29.51,NNE,23,4.0,4.0,67,0.00,,,0.01,WUHU216HW,2013-02-25 06:17:00,
2013-02-24 23:18:00,32.6,22.8,29.51,NE,45,1.8,4.0,67,0.00,,,0.01,WUHU216HW,2013-02-25 06:18:00,
2013-02-24 23:20:00,32.6,22.4,29.52,North,0,1.8,4.0,66,0.00,,,0.01,WUHU216HW,2013-02-25 06:20:00,
2013-02-24 23:21:00,32.6,22.4,29.51,NNW,338,0.2,4.0,66,0.00,,,0.01,WUHU216HW,2013-02-25 06:21:00,
2013-02-24 23:22:00,32.6,22.4,29.51,NNE,23,4.3,4.3,66,0.00,,,0.01,WUHU216HW,2013-02-25 06:22:00,
2013-02-24 23:23:00,32.8,23.0,29.51,North,0,6.5,6.5,67,0.00,,,0.01,WUHU216HW,2013-02-25 06:23:00,
2013-02-24 23:25:00,32.8,22.6,29.51,North,0,5.8,6.5,66,0.00,,,0.01,WUHU216HW,2013-02-25 06:25:00,
2013-02-24 23:26:00,32.8,22.2,29.51,North,0,4.7,6.5,65,0.00,,,0.01,WUHU216HW,2013-02-25 06:26:00,
2013-02-24 23:27:00,32.8,22.2,29.51,NNW,338,6.7,6.7,65,0.00,,,0.01,WUHU216HW,2013-02-25 06:27:00,
2013-02-24 23:29:00,32.8,21.9,29.51,NNE,23,7.6,7.6,64,0.00,,,0.01,WUHU216HW,2013-02-25 06:29:00,
2013-02-24 23:30:00,32.9,22.1,29.51,NNE,23,7.8,7.8,64,0.00,,,0.01,WUHU216HW,2013-02-25 06:30:00,
2013-02-24 23:31:00,32.9,21.7,29.51,North,0,5.4,7.8,63,0.00,,,0.01,WUHU216HW,2013-02-25 06:31:00,
2013-02-24 23:32:00,33.1,21.5,29.51,North,0,4.5,7.8,62,0.00,,,0.01,WUHU216HW,2013-02-25 06:32:00,
2013-02-24 23:34:00,33.1,21.5,29.51,NE,45,3.8,7.8,62,0.00,,,0.01,WUHU216HW,2013-02-25 06:34:00,
2013-02-24 23:35:00,33.3,21.7,29.51,North,0,4.5,7.8,62,0.00,,,0.01,WUHU216HW,2013-02-25 06:35:00,
2013-02-24 23:37:00,33.3,21.7,29.52,NNE,23,5.4,7.8,62,0.00,,,0.01,WUHU216HW,2013-02-25 06:37:00,
2013-02-24 23:39:00,33.3,21.3,29.51,NNW,338,2.5,7.8,61,0.00,,,0.01,WUHU216HW,2013-02-25 06:39:00,
2013-02-24 23:41:00,33.5,21.4,29.51,NNE,23,3.4,5.4,61,0.00,,,0.01,WUHU216HW,2013-02-25 06:41:00,
2013-02-24 23:42:00,33.5,21.4,29.52,NE,45,4.0,5.4,61,0.00,,,0.01,WUHU216HW,2013-02-25 06:42:00,
2013-02-24 23:43:00,33.5,21.1,29.52,ENE,68,1.8,5.4,60,0.00,,,0.01,WUHU216HW,2013-02-25 06:43:00,
2013-02-24 23:44:00,33.5,21.1,29.52,ENE,68,1.3,5.4,60,0.00,,,0.01,WUHU216HW,2013-02-25 06:44:00,
2013-02-24 23:46:00,33.5,21.1,29.52,SE,135,0.7,5.4,60,0.00,,,0.01,WUHU216HW,2013-02-25 06:46:00,
2013-02-24 23:47:00,33.5,21.1,29.52,SE,135,1.6,5.4,60,0.00,,,0.01,WUHU216HW,2013-02-25 06:47:00,
2013-02-24 23:48:00,33.5,21.1,29.52,SE,135,1.1,5.4,60,0.00,,,0.01,WUHU216HW,2013-02-25 06:48:00,
2013-02-24 23:49:00,33.5,21.1,29.52,SSE,158,0.2,4.0,60,0.00,,,0.01,WUHU216HW,2013-02-25 06:49:00,
2013-02-24 23:51:00,33.5,21.1,29.52,SSE,158,0.0,4.0,60,0.00,,,0.01,WUHU216HW,2013-02-25 06:51:00,
2013-02-24 23:52:00,33.5,21.1,29.52,NNE,23,1.8,1.8,60,0.00,,,0.01,WUHU216HW,2013-02-25 06:52:00,
2013-02-24 23:53:00,33.5,21.1,29.52,NNW,338,0.0,1.8,60,0.00,,,0.01,WUHU216HW,2013-02-25 06:53:00,
2013-02-24 23:54:00,33.5,21.1,29.51,WNW,293,2.7,2.7,60,0.00,,,0.01,WUHU216HW,2013-02-25 06:54:00,
2013-02-24 23:56:00,33.5,21.4,29.51,NNW,338,3.1,3.1,61,0.00,,,0.01,WUHU216HW,2013-02-25 06:56:00,
2013-02-24 23:57:00,33.5,21.1,29.51,North,0,3.6,3.6,60,0.00,,,0.01,WUHU216HW,2013-02-25 06:57:00,
2013-02-24 23:58:00,33.5,20.7,29.51,North,0,6.3,6.3,59,0.00,,,0.01,WUHU216HW,2013-02-25 06:58:00,
2013-02-24 23:59:00,33.7,20.0,29.52,North,0,4.3,7.6,57,0.00,,,0.01,WUHU216HW,2013-02-25 06:59:00,